Time,TemperatureF,DewpointF,PressureIn,WindDirection,WindDirectionDegrees,WindSpeedMPH,WindSpeedGustMPH,Humidity,HourlyPrecipIn,Conditions,Clouds,dailyrainin,SoftwareType,DateUTC
2013-06-04 00:01:00,55.6,36.7,29.18,NNE,22,1.1,1.1,49,0.00,CLR,,0.00,WeatherDisplay:10.37,2013-06-04 05:01:00,
2013-06-04 00:02:00,55.6,36.7,29.18,NNE,22,1.1,0.0,49,0.00,CLR,,0.00,WeatherDisplay:10.37,2013-06-04 05:02:00,
2013-06-04 00:05:00,55.4,36.5,29.20,NNE,22,1.0,0.0,49,0.00,CLR,,0.00,WeatherDisplay:10.37,2013-06-04 05:05:00,
2013-06-04 00:07:00,55.4,36.5,29.20,NNE,22,1.1,0.0,49,0.00,CLR,,0.00,WeatherDisplay:10.37,2013-06-04 05:07:00,
2013-06-04 00:08:00,55.4,36.5,29.20,NNE,22,1.1,0.0,49,0.00,CLR,,0.00,WeatherDisplay:10.37,2013-06-04 05:08:00,
2013-06-04 00:09:00,55.4,36.5,29.20,NNE,22,0.0,0.0,49,0.00,CLR,,0.00,WeatherDisplay:10.37,2013-06-04 05:09:00,
2013-06-04 00:11:00,55.2,36.9,29.20,NE,45,0.0,0.0,50,0.00,CLR,,0.00,WeatherDisplay:10.37,2013-06-04 05:11:00,
2013-06-04 00:13:00,55.2,36.9,29.20,NE,45,0.0,0.0,50,0.00,CLR,,0.00,WeatherDisplay:10.37,2013-06-04 05:13:00,
2013-06-04 00:14:00,55.0,36.7,29.20,NE,45,0.0,0.0,50,0.00,CLR,,0.00,WeatherDisplay:10.37,2013-06-04 05:14:00,
2013-06-04 00:15:00,55.0,36.7,29.20,NE,36,0.0,0.0,50,0.00,CLR,,0.00,WeatherDisplay:10.37,2013-06-04 05:15:00,
2013-06-04 00:17:00,55.0,36.7,29.20,NE,45,1.1,0.0,50,0.00,CLR,,0.00,WeatherDisplay:10.37,2013-06-04 05:17:00,
2013-06-04 00:18:00,55.0,36.7,29.20,NE,45,1.1,0.0,50,0.00,CLR,,0.00,WeatherDisplay:10.37,2013-06-04 05:18:00,
2013-06-04 00:19:00,55.0,36.7,29.20,NE,45,1.1,0.0,50,0.00,CLR,,0.00,WeatherDisplay:10.37,2013-06-04 05:19:00,
2013-06-04 00:20:00,55.0,36.7,29.20,NE,45,0.0,0.0,50,0.00,CLR,,0.00,WeatherDisplay:10.37,2013-06-04 05:20:00,
2013-06-04 00:24:00,54.9,36.6,29.20,NE,45,1.1,1.1,50,0.00,CLR,,0.00,WeatherDisplay:10.37,2013-06-04 05:24:00,
2013-06-04 00:25:00,54.9,36.6,29.20,NE,45,1.1,0.0,50,0.00,CLR,,0.00,WeatherDisplay:10.37,2013-06-04 05:25:00,
2013-06-04 00:26:00,54.9,36.6,29.20,NE,45,1.1,1.1,50,0.00,CLR,,0.00,WeatherDisplay:10.37,2013-06-04 05:26:00,
2013-06-04 00:30:00,54.9,36.6,29.20,East,90,1.1,0.0,50,0.00,CLR,,0.00,WeatherDisplay:10.37,2013-06-04 05:30:00,
2013-06-04 00:31:00,54.9,36.6,29.20,ENE,68,2.4,2.4,50,0.00,CLR,,0.00,WeatherDisplay:10.37,2013-06-04 05:31:00,
2013-06-04 00:33:00,54.9,36.6,29.20,ENE,68,2.3,2.3,50,0.00,CLR,,0.00,WeatherDisplay:10.37,2013-06-04 05:33:00,
2013-06-04 00:35:00,54.9,37.1,29.20,ENE,68,1.6,1.6,51,0.00,CLR,,0.00,WeatherDisplay:10.37,2013-06-04 05:35:00,
2013-06-04 00:36:00,54.9,37.1,29.20,ENE,68,1.1,0.0,51,0.00,CLR,,0.00,WeatherDisplay:10.37,2013-06-04 05:36:00,
2013-06-04 00:37:00,54.9,37.1,29.20,ENE,68,1.1,0.0,51,0.00,CLR,,0.00,WeatherDisplay:10.37,2013-06-04 05:37:00,
2013-06-04 00:39:00,54.9,37.1,29.20,NE,45,1.4,1.4,51,0.00,CLR,,0.00,WeatherDisplay:10.37,2013-06-04 05:39:00,
2013-06-04 00:41:00,54.9,37.1,29.20,ENE,68,1.1,1.1,51,0.00,CLR,,0.00,WeatherDisplay:10.37,2013-06-04 05:41:00,
2013-06-04 00:42:00,54.9,37.1,29.20,ENE,68,1.4,1.4,51,0.00,CLR,,0.00,WeatherDisplay:10.37,2013-06-04 05:42:00,
2013-06-04 00:44:00,54.7,36.9,29.20,ENE,68,2.3,2.3,51,0.00,CLR,,0.00,WeatherDisplay:10.37,2013-06-04 05:44:00,
2013-06-04 00:46:00,54.9,37.1,29.20,East,90,2.3,2.3,51,0.00,CLR,,0.00,WeatherDisplay:10.37,2013-06-04 05:46:00,
2013-06-04 00:47:00,54.9,37.6,29.20,East,90,1.1,1.1,52,0.00,CLR,,0.00,WeatherDisplay:10.37,2013-06-04 05:47:00,
2013-06-04 00:48:00,54.9,37.6,29.20,East,90,1.1,1.1,52,0.00,CLR,,0.00,WeatherDisplay:10.37,2013-06-04 05:48:00,
2013-06-04 00:50:00,54.9,37.1,29.18,ENE,68,2.3,2.3,51,0.00,CLR,,0.00,WeatherDisplay:10.37,2013-06-04 05:50:00,
2013-06-04 00:51:00,54.7,36.9,29.18,NE,45,2.3,2.3,51,0.00,CLR,,0.00,WeatherDisplay:10.37,2013-06-04 05:51:00,
2013-06-04 00:53:00,54.7,37.4,29.18,ENE,68,2.9,2.9,52,0.00,CLR,,0.00,WeatherDisplay:10.37,2013-06-04 05:53:00,
2013-06-04 00:54:00,54.7,37.4,29.18,ENE,68,2.3,2.3,52,0.00,CLR,,0.00,WeatherDisplay:10.37,2013-06-04 05:54:00,
2013-06-04 00:55:00,54.7,37.4,29.18,ENE,68,2.3,2.3,52,0.00,CLR,,0.00,WeatherDisplay:10.37,2013-06-04 05:55:00,
2013-06-04 00:58:00,54.7,37.4,29.18,ESE,112,2.4,2.4,52,0.00,CLR,,0.00,WeatherDisplay:10.37,2013-06-04 05:58:00,
2013-06-04 01:00:00,54.7,37.9,29.18,ENE,68,3.5,3.5,53,0.00,CLR,,0.00,WeatherDisplay:10.37,2013-06-04 06:00:00,
2013-06-04 01:01:00,54.7,37.9,29.18,East,90,3.3,3.3,53,0.00,CLR,,0.00,WeatherDisplay:10.37,2013-06-04 06:01:00,
2013-06-04 01:02:00,54.7,37.9,29.18,ENE,68,1.1,1.6,53,0.00,CLR,,0.00,WeatherDisplay:10.37,2013-06-04 06:02:00,
2013-06-04 01:03:00,54.7,37.4,29.18,ENE,68,3.1,0.0,52,0.00,CLR,,0.00,WeatherDisplay:10.37,2013-06-04 06:03:00,
2013-06-04 01:04:00,54.7,37.4,29.18,ENE,68,1.1,1.1,52,0.00,CLR,,0.00,WeatherDisplay:10.37,2013-06-04 06:04:00,
2013-06-04 01:05:00,54.7,37.4,29.20,ENE,72,1.0,0.0,52,0.00,CLR,,0.00,WeatherDisplay:10.37,2013-06-04 06:05:00,
2013-06-04 01:07:00,54.7,37.9,29.20,ENE,68,3.5,3.5,53,0.00,CLR,,0.00,WeatherDisplay:10.37,2013-06-04 06:07:00,
2013-06-04 01:08:00,54.7,37.9,29.20,NNE,22,2.3,2.3,53,0.00,CLR,,0.00,WeatherDisplay:10.37,2013-06-04 06:08:00,
2013-06-04 01:10:00,54.7,37.9,29.20,ENE,70,1.0,0.0,53,0.00,CLR,,0.00,WeatherDisplay:10.37,2013-06-04 06:10:00,
2013-06-04 01:12:00,54.7,37.9,29.20,ESE,112,2.3,2.3,53,0.00,CLR,,0.00,WeatherDisplay:10.37,2013-06-04 06:12:00,
2013-06-04 01:13:00,54.7,37.9,29.20,ESE,112,3.5,3.5,53,0.00,CLR,,0.00,WeatherDisplay:10.37,2013-06-04 06:13:00,
2013-06-04 01:15:00,54.7,37.9,29.20,East,87,1.0,0.0,53,0.00,CLR,,0.00,WeatherDisplay:10.37,2013-06-04 06:15:00,
2013-06-04 01:16:00,54.7,37.9,29.20,East,90,3.5,3.5,53,0.00,CLR,,0.00,WeatherDisplay:10.37,2013-06-04 06:16:00,
2013-06-04 01:17:00,54.7,37.9,29.20,ESE,112,3.5,3.5,53,0.00,CLR,,0.00,WeatherDisplay:10.37,2013-06-04 06:17:00,
2013-06-04 01:19:00,54.5,37.2,29.18,ENE,68,2.6,2.6,52,0.00,CLR,,0.00,WeatherDisplay:10.37,2013-06-04 06:19:00,
2013-06-04 01:20:00,54.5,37.7,29.18,ESE,112,3.5,3.5,53,0.00,CLR,,0.00,WeatherDisplay:10.37,2013-06-04 06:20:00,
2013-06-04 01:21:00,54.5,37.7,29.18,ESE,112,3.5,3.5,53,0.00,CLR,,0.00,WeatherDisplay:10.37,2013-06-04 06:21:00,
2013-06-04 01:23:00,54.5,37.7,29.18,ESE,112,3.5,3.5,53,0.00,CLR,,0.00,WeatherDisplay:10.37,2013-06-04 06:23:00,
2013-06-04 01:24:00,54.5,37.7,29.18,ESE,112,2.3,2.3,53,0.00,CLR,,0.00,WeatherDisplay:10.37,2013-06-04 06:24:00,
2013-06-04 01:26:00,54.5,37.7,29.18,ESE,112,2.9,2.9,53,0.00,CLR,,0.00,WeatherDisplay:10.37,2013-06-04 06:26:00,
2013-06-04 01:27:00,54.5,37.7,29.18,ENE,68,1.1,1.6,53,0.00,CLR,,0.00,WeatherDisplay:10.37,2013-06-04 06:27:00,
2013-06-04 01:30:00,54.5,37.7,29.18,East,90,3.1,0.0,53,0.00,CLR,,0.00,WeatherDisplay:10.37,2013-06-04 06:30:00,
2013-06-04 01:32:00,54.5,37.7,29.18,ESE,112,3.5,3.5,53,0.00,CLR,,0.00,WeatherDisplay:10.37,2013-06-04 06:32:00,
2013-06-04 01:35:00,54.5,37.7,29.18,SE,135,2.3,2.3,53,0.00,CLR,,0.00,WeatherDisplay:10.37,2013-06-04 06:35:00,
2013-06-04 01:37:00,54.5,37.7,29.18,ESE,112,1.6,1.6,53,0.00,CLR,,0.00,WeatherDisplay:10.37,2013-06-04 06:37:00,
2013-06-04 01:38:00,54.5,37.7,29.18,ESE,112,2.9,0.0,53,0.00,CLR,,0.00,WeatherDisplay:10.37,2013-06-04 06:38:00,
2013-06-04 01:39:00,54.5,37.7,29.18,East,90,3.5,3.5,53,0.00,CLR,,0.00,WeatherDisplay:10.37,2013-06-04 06:39:00,
2013-06-04 01:43:00,54.3,37.5,29.18,ESE,112,1.4,1.4,53,0.00,CLR,,0.00,WeatherDisplay:10.37,2013-06-04 06:43:00,
2013-06-04 01:44:00,54.3,37.5,29.18,ENE,68,3.5,3.5,53,0.00,CLR,,0.00,WeatherDisplay:10.37,2013-06-04 06:44:00,
2013-06-04 01:45:00,54.3,37.5,29.18,East,84,2.0,0.0,53,0.00,CLR,,0.00,WeatherDisplay:10.37,2013-06-04 06:45:00,
2013-06-04 01:46:00,54.3,37.5,29.18,ENE,68,2.3,2.3,53,0.00,CLR,,0.00,WeatherDisplay:10.37,2013-06-04 06:46:00,
2013-06-04 01:48:00,54.3,37.5,29.18,East,90,2.3,2.3,53,0.00,CLR,,0.00,WeatherDisplay:10.37,2013-06-04 06:48:00,
2013-06-04 01:50:00,54.3,37.5,29.20,East,86,2.0,0.0,53,0.00,CLR,,0.00,WeatherDisplay:10.37,2013-06-04 06:50:00,
2013-06-04 01:51:00,54.3,37.5,29.20,NE,45,2.3,2.3,53,0.00,CLR,,0.00,WeatherDisplay:10.37,2013-06-04 06:51:00,
2013-06-04 01:52:00,54.3,37.5,29.20,NE,45,2.3,2.3,53,0.00,CLR,,0.00,WeatherDisplay:10.37,2013-06-04 06:52:00,
2013-06-04 01:53:00,54.3,37.5,29.20,ESE,112,3.3,3.3,53,0.00,CLR,,0.00,WeatherDisplay:10.37,2013-06-04 06:53:00,
2013-06-04 01:55:00,54.3,37.5,29.20,East,89,2.0,0.0,53,0.00,CLR,,0.00,WeatherDisplay:10.37,2013-06-04 06:55:00,
2013-06-04 01:56:00,54.3,37.5,29.20,ENE,68,2.3,2.3,53,0.00,CLR,,0.00,WeatherDisplay:10.37,2013-06-04 06:56:00,
2013-06-04 01:57:00,54.3,37.5,29.20,ENE,68,2.3,2.3,53,0.00,CLR,,0.00,WeatherDisplay:10.37,2013-06-04 06:57:00,
2013-06-04 01:58:00,54.3,37.5,29.20,ESE,112,1.1,1.1,53,0.00,CLR,,0.00,WeatherDisplay:10.37,2013-06-04 06:58:00,
2013-06-04 02:02:00,54.3,37.5,29.20,ENE,68,2.3,2.3,53,0.00,CLR,,0.00,WeatherDisplay:10.37,2013-06-04 07:02:00,
2013-06-04 02:03:00,54.3,37.5,29.20,ENE,68,2.9,2.9,53,0.00,CLR,,0.00,WeatherDisplay:10.37,2013-06-04 07:03:00,
2013-06-04 02:05:00,54.3,37.5,29.18,ENE,68,1.1,1.1,53,0.00,CLR,,0.00,WeatherDisplay:10.37,2013-06-04 07:05:00,
2013-06-04 02:06:00,54.3,37.5,29.18,East,90,1.1,0.0,53,0.00,CLR,,0.00,WeatherDisplay:10.37,2013-06-04 07:06:00,
2013-06-04 02:08:00,54.3,37.5,29.18,East,90,1.6,1.6,53,0.00,CLR,,0.00,WeatherDisplay:10.37,2013-06-04 07:08:00,
2013-06-04 02:09:00,54.3,38.0,29.18,East,90,1.4,0.0,54,0.00,CLR,,0.00,WeatherDisplay:10.37,2013-06-04 07:09:00,
2013-06-04 02:10:00,54.3,38.0,29.18,NE,45,1.1,0.0,54,0.00,CLR,,0.00,WeatherDisplay:10.37,2013-06-04 07:10:00,
2013-06-04 02:12:00,54.1,37.8,29.18,ESE,112,2.3,2.3,54,0.00,CLR,,0.00,WeatherDisplay:10.37,2013-06-04 07:12:00,
2013-06-04 02:13:00,54.1,37.8,29.18,ENE,68,2.3,0.0,54,0.00,CLR,,0.00,WeatherDisplay:10.37,2013-06-04 07:13:00,
2013-06-04 02:15:00,54.1,37.8,29.18,East,90,3.5,0.0,54,0.00,CLR,,0.00,WeatherDisplay:10.37,2013-06-04 07:15:00,
2013-06-04 02:16:00,54.1,37.8,29.18,ESE,112,3.5,3.5,54,0.00,CLR,,0.00,WeatherDisplay:10.37,2013-06-04 07:16:00,
2013-06-04 02:19:00,54.1,37.4,29.18,East,90,3.5,3.5,53,0.00,CLR,,0.00,WeatherDisplay:10.37,2013-06-04 07:19:00,
2013-06-04 02:20:00,54.1,37.8,29.20,East,98,2.0,0.0,54,0.00,CLR,,0.00,WeatherDisplay:10.37,2013-06-04 07:20:00,
2013-06-04 02:21:00,54.1,37.8,29.20,SE,135,2.6,2.6,54,0.00,CLR,,0.00,WeatherDisplay:10.37,2013-06-04 07:21:00,
2013-06-04 02:22:00,54.1,37.8,29.20,ENE,68,2.6,2.6,54,0.00,CLR,,0.00,WeatherDisplay:10.37,2013-06-04 07:22:00,
2013-06-04 02:25:00,54.1,37.8,29.20,ENE,68,1.1,1.1,54,0.00,CLR,,0.00,WeatherDisplay:10.37,2013-06-04 07:25:00,
2013-06-04 02:27:00,54.1,37.8,29.20,East,90,1.1,1.1,54,0.00,CLR,,0.00,WeatherDisplay:10.37,2013-06-04 07:27:00,
2013-06-04 02:29:00,54.1,37.8,29.20,ENE,68,2.3,2.3,54,0.00,CLR,,0.00,WeatherDisplay:10.37,2013-06-04 07:29:00,
2013-06-04 02:30:00,54.1,37.8,29.20,ENE,68,2.3,2.3,54,0.00,CLR,,0.00,WeatherDisplay:10.37,2013-06-04 07:30:00,
2013-06-04 02:32:00,54.1,37.8,29.20,ENE,68,2.3,2.3,54,0.00,CLR,,0.00,WeatherDisplay:10.37,2013-06-04 07:32:00,
2013-06-04 02:33:00,54.1,37.8,29.20,ENE,68,2.3,2.3,54,0.00,CLR,,0.00,WeatherDisplay:10.37,2013-06-04 07:33:00,
2013-06-04 02:35:00,54.1,37.8,29.20,East,90,2.3,2.3,54,0.00,CLR,,0.00,WeatherDisplay:10.37,2013-06-04 07:35:00,
2013-06-04 02:36:00,54.1,37.8,29.20,East,90,2.3,2.3,54,0.00,CLR,,0.00,WeatherDisplay:10.37,2013-06-04 07:36:00,
2013-06-04 02:37:00,54.1,37.8,29.20,ESE,112,2.6,2.6,54,0.00,CLR,,0.00,WeatherDisplay:10.37,2013-06-04 07:37:00,
2013-06-04 02:38:00,54.1,37.8,29.20,NNE,22,3.5,3.5,54,0.00,CLR,,0.00,WeatherDisplay:10.37,2013-06-04 07:38:00,
2013-06-04 02:41:00,54.1,37.8,29.20,East,90,4.6,4.6,54,0.00,CLR,,0.00,WeatherDisplay:10.37,2013-06-04 07:41:00,
2013-06-04 02:43:00,54.1,37.8,29.20,East,90,1.1,0.0,54,0.00,CLR,,0.00,WeatherDisplay:10.37,2013-06-04 07:43:00,
2013-06-04 02:47:00,54.0,37.7,29.20,East,90,2.3,0.0,54,0.00,CLR,,0.00,WeatherDisplay:10.37,2013-06-04 07:47:00,
2013-06-04 02:48:00,54.0,37.7,29.20,East,90,1.4,0.0,54,0.00,CLR,,0.00,WeatherDisplay:10.37,2013-06-04 07:48:00,
2013-06-04 02:50:00,54.0,37.7,29.20,East,90,1.0,0.0,54,0.00,CLR,,0.00,WeatherDisplay:10.37,2013-06-04 07:50:00,
2013-06-04 02:51:00,54.0,37.7,29.20,ENE,68,2.4,2.4,54,0.00,CLR,,0.00,WeatherDisplay:10.37,2013-06-04 07:51:00,
2013-06-04 02:53:00,54.0,37.7,29.20,East,90,2.3,2.3,54,0.00,CLR,,0.00,WeatherDisplay:10.37,2013-06-04 07:53:00,
2013-06-04 02:55:00,54.0,37.7,29.20,ESE,112,2.3,0.0,54,0.00,CLR,,0.00,WeatherDisplay:10.37,2013-06-04 07:55:00,
2013-06-04 02:56:00,54.0,38.1,29.20,East,90,2.3,0.0,55,0.00,CLR,,0.00,WeatherDisplay:10.37,2013-06-04 07:56:00,
2013-06-04 02:57:00,54.0,37.7,29.20,ESE,112,0.0,0.0,54,0.00,CLR,,0.00,WeatherDisplay:10.37,2013-06-04 07:57:00,
2013-06-04 02:58:00,54.0,37.7,29.20,ESE,112,0.0,0.0,54,0.00,CLR,,0.00,WeatherDisplay:10.37,2013-06-04 07:58:00,
2013-06-04 02:59:00,54.0,37.7,29.20,ENE,68,1.1,1.1,54,0.00,CLR,,0.00,WeatherDisplay:10.37,2013-06-04 07:59:00,
2013-06-04 03:00:00,53.9,37.7,29.20,East,82,1.0,0.0,54,0.00,CLR,,0.00,WeatherDisplay:10.37,2013-06-04 08:00:00,
2013-06-04 03:02:00,53.8,37.5,29.20,ENE,68,2.3,2.3,54,0.00,CLR,,0.00,WeatherDisplay:10.37,2013-06-04 08:02:00,
2013-06-04 03:03:00,53.8,38.0,29.20,NNE,22,1.1,0.0,55,0.00,CLR,,0.00,WeatherDisplay:10.37,2013-06-04 08:03:00,
2013-06-04 03:05:00,53.8,38.0,29.20,ESE,112,3.5,3.5,55,0.00,CLR,,0.00,WeatherDisplay:10.37,2013-06-04 08:05:00,
2013-06-04 03:07:00,53.6,37.3,29.20,East,90,1.1,0.0,54,0.00,CLR,,0.00,WeatherDisplay:10.37,2013-06-04 08:07:00,
2013-06-04 03:08:00,53.6,37.3,29.20,East,90,1.1,0.0,54,0.00,CLR,,0.00,WeatherDisplay:10.37,2013-06-04 08:08:00,
2013-06-04 03:10:00,53.6,37.3,29.20,SE,135,2.3,2.3,54,0.00,CLR,,0.00,WeatherDisplay:10.37,2013-06-04 08:10:00,
2013-06-04 03:11:00,53.6,37.3,29.20,SE,135,1.1,1.1,54,0.00,CLR,,0.00,WeatherDisplay:10.37,2013-06-04 08:11:00,
2013-06-04 03:13:00,53.4,37.6,29.20,SE,135,1.1,0.0,55,0.00,CLR,,0.00,WeatherDisplay:10.37,2013-06-04 08:13:00,
2013-06-04 03:15:00,53.4,37.6,29.20,SE,135,0.0,0.0,55,0.00,CLR,,0.00,WeatherDisplay:10.37,2013-06-04 08:15:00,
2013-06-04 03:16:00,53.4,37.6,29.20,SE,135,0.0,0.0,55,0.00,CLR,,0.00,WeatherDisplay:10.37,2013-06-04 08:16:00,
2013-06-04 03:17:00,53.2,37.5,29.20,SE,135,0.0,0.0,55,0.00,CLR,,0.00,WeatherDisplay:10.37,2013-06-04 08:17:00,
2013-06-04 03:20:00,53.2,37.5,29.26,SE,135,0.0,0.0,55,0.00,CLR,,0.00,WeatherDisplay:10.37,2013-06-04 08:20:00,
2013-06-04 03:22:00,53.1,37.3,29.26,SE,135,0.0,0.0,55,0.00,CLR,,0.00,WeatherDisplay:10.37,2013-06-04 08:22:00,
2013-06-04 03:23:00,53.1,37.3,29.26,SE,135,0.0,0.0,55,0.00,CLR,,0.00,WeatherDisplay:10.37,2013-06-04 08:23:00,
2013-06-04 03:24:00,53.1,37.3,29.26,SE,135,0.0,0.0,55,0.00,CLR,,0.00,WeatherDisplay:10.37,2013-06-04 08:24:00,
2013-06-04 03:25:00,53.1,37.3,29.26,SE,135,1.4,1.4,55,0.00,CLR,,0.00,WeatherDisplay:10.37,2013-06-04 08:25:00,
2013-06-04 03:26:00,53.1,37.8,29.26,ESE,112,1.6,1.6,56,0.00,CLR,,0.00,WeatherDisplay:10.37,2013-06-04 08:26:00,
2013-06-04 03:27:00,53.1,37.8,29.26,East,90,2.3,2.3,56,0.00,CLR,,0.00,WeatherDisplay:10.37,2013-06-04 08:27:00,
2013-06-04 03:29:00,53.1,37.3,29.26,ENE,68,2.3,2.3,55,0.00,CLR,,0.00,WeatherDisplay:10.37,2013-06-04 08:29:00,
2013-06-04 03:31:00,53.1,37.8,29.26,ENE,68,2.3,2.3,56,0.00,CLR,,0.00,WeatherDisplay:10.37,2013-06-04 08:31:00,
2013-06-04 03:32:00,53.1,37.8,29.26,ENE,68,1.1,1.1,56,0.00,CLR,,0.00,WeatherDisplay:10.37,2013-06-04 08:32:00,
2013-06-04 03:34:00,52.9,37.6,29.26,ENE,68,1.1,0.0,56,0.00,CLR,,0.00,WeatherDisplay:10.37,2013-06-04 08:34:00,
2013-06-04 03:36:00,52.9,37.6,29.20,ENE,68,0.0,0.0,56,0.00,CLR,,0.00,WeatherDisplay:10.37,2013-06-04 08:36:00,
2013-06-04 03:38:00,52.7,37.4,29.20,ENE,68,0.0,0.0,56,0.00,CLR,,0.00,WeatherDisplay:10.37,2013-06-04 08:38:00,
2013-06-04 03:39:00,52.7,37.4,29.20,ENE,68,0.0,0.0,56,0.00,CLR,,0.00,WeatherDisplay:10.37,2013-06-04 08:39:00,
2013-06-04 03:41:00,52.5,37.3,29.20,ENE,68,0.0,0.0,56,0.00,CLR,,0.00,WeatherDisplay:10.37,2013-06-04 08:41:00,
2013-06-04 03:42:00,52.5,37.3,29.20,ENE,68,0.0,0.0,56,0.00,CLR,,0.00,WeatherDisplay:10.37,2013-06-04 08:42:00,
2013-06-04 03:43:00,52.5,37.3,29.20,ENE,68,0.0,0.0,56,0.00,CLR,,0.00,WeatherDisplay:10.37,2013-06-04 08:43:00,
2013-06-04 03:44:00,52.5,37.3,29.20,ENE,68,0.0,0.0,56,0.00,CLR,,0.00,WeatherDisplay:10.37,2013-06-04 08:44:00,
2013-06-04 03:45:00,52.5,37.3,29.20,ENE,68,0.0,0.0,56,0.00,CLR,,0.00,WeatherDisplay:10.37,2013-06-04 08:45:00,
2013-06-04 03:46:00,52.5,37.7,29.20,ENE,68,0.0,0.0,57,0.00,CLR,,0.00,WeatherDisplay:10.37,2013-06-04 08:46:00,
2013-06-04 03:47:00,52.5,37.7,29.20,ENE,68,0.0,0.0,57,0.00,CLR,,0.00,WeatherDisplay:10.37,2013-06-04 08:47:00,
2013-06-04 03:49:00,52.3,37.5,29.20,ENE,68,1.1,0.0,57,0.00,CLR,,0.00,WeatherDisplay:10.37,2013-06-04 08:49:00,
2013-06-04 03:50:00,52.3,37.5,29.20,ENE,68,1.1,0.0,57,0.00,CLR,,0.00,WeatherDisplay:10.37,2013-06-04 08:50:00,
2013-06-04 03:54:00,52.3,38.0,29.20,ENE,68,1.1,0.0,58,0.00,CLR,,0.00,WeatherDisplay:10.37,2013-06-04 08:54:00,
2013-06-04 03:55:00,52.3,38.0,29.20,SSE,158,2.3,2.3,58,0.00,CLR,,0.00,WeatherDisplay:10.37,2013-06-04 08:55:00,
2013-06-04 03:57:00,52.3,38.0,29.20,SSE,158,2.3,0.0,58,0.00,CLR,,0.00,WeatherDisplay:10.37,2013-06-04 08:57:00,
2013-06-04 03:58:00,52.3,38.4,29.20,East,90,4.0,0.0,59,0.00,CLR,,0.00,WeatherDisplay:10.37,2013-06-04 08:58:00,
2013-06-04 04:00:00,52.3,38.4,29.20,East,90,4.6,0.0,59,0.00,CLR,,0.00,WeatherDisplay:10.37,2013-06-04 09:00:00,
2013-06-04 04:01:00,52.3,38.0,29.20,ENE,68,0.0,0.0,58,0.00,CLR,,0.00,WeatherDisplay:10.37,2013-06-04 09:01:00,
2013-06-04 04:02:00,52.3,38.0,29.20,ENE,68,1.1,0.0,58,0.00,CLR,,0.00,WeatherDisplay:10.37,2013-06-04 09:02:00,
2013-06-04 04:03:00,52.3,38.0,29.20,ENE,68,1.1,0.0,58,0.00,CLR,,0.00,WeatherDisplay:10.37,2013-06-04 09:03:00,
2013-06-04 04:05:00,52.2,37.8,29.20,ESE,112,5.4,5.4,58,0.00,CLR,,0.00,WeatherDisplay:10.37,2013-06-04 09:05:00,
2013-06-04 04:07:00,52.2,37.8,29.20,East,90,3.5,3.5,58,0.00,CLR,,0.00,WeatherDisplay:10.37,2013-06-04 09:07:00,
2013-06-04 04:08:00,52.2,37.8,29.20,East,90,1.1,0.0,58,0.00,CLR,,0.00,WeatherDisplay:10.37,2013-06-04 09:08:00,
2013-06-04 04:10:00,52.3,38.4,29.20,ESE,112,1.4,1.4,59,0.00,CLR,,0.00,WeatherDisplay:10.37,2013-06-04 09:10:00,
2013-06-04 04:12:00,52.3,38.0,29.20,East,90,1.4,1.4,58,0.00,CLR,,0.00,WeatherDisplay:10.37,2013-06-04 09:12:00,
2013-06-04 04:13:00,52.3,38.4,29.20,ENE,68,2.3,2.3,59,0.00,CLR,,0.00,WeatherDisplay:10.37,2013-06-04 09:13:00,
2013-06-04 04:14:00,52.3,38.4,29.20,ENE,68,2.3,2.3,59,0.00,CLR,,0.00,WeatherDisplay:10.37,2013-06-04 09:14:00,
2013-06-04 04:15:00,52.3,38.4,29.20,East,86,1.0,0.0,59,0.00,CLR,,0.00,WeatherDisplay:10.37,2013-06-04 09:15:00,
2013-06-04 04:19:00,52.3,38.4,29.20,ENE,68,2.3,2.3,59,0.00,CLR,,0.00,WeatherDisplay:10.37,2013-06-04 09:19:00,
2013-06-04 04:22:00,52.5,38.6,29.20,ENE,68,2.3,2.3,59,0.00,CLR,,0.00,WeatherDisplay:10.37,2013-06-04 09:22:00,
2013-06-04 04:24:00,52.5,38.6,29.20,East,90,2.3,2.3,59,0.00,CLR,,0.00,WeatherDisplay:10.37,2013-06-04 09:24:00,
2013-06-04 04:25:00,52.5,38.6,29.20,SE,135,2.4,2.4,59,0.00,CLR,,0.00,WeatherDisplay:10.37,2013-06-04 09:25:00,
2013-06-04 04:27:00,52.5,38.6,29.20,South,180,2.3,0.0,59,0.00,CLR,,0.00,WeatherDisplay:10.37,2013-06-04 09:27:00,
2013-06-04 04:28:00,52.5,38.6,29.20,East,90,2.3,2.3,59,0.00,CLR,,0.00,WeatherDisplay:10.37,2013-06-04 09:28:00,
2013-06-04 04:30:00,52.5,38.6,29.20,East,90,3.5,3.5,59,0.00,CLR,,0.00,WeatherDisplay:10.37,2013-06-04 09:30:00,
2013-06-04 04:31:00,52.5,38.6,29.20,NNE,22,3.5,3.5,59,0.00,CLR,,0.00,WeatherDisplay:10.37,2013-06-04 09:31:00,
2013-06-04 04:33:00,52.5,38.6,29.20,East,90,2.3,2.3,59,0.00,CLR,,0.00,WeatherDisplay:10.37,2013-06-04 09:33:00,
2013-06-04 04:34:00,52.5,38.6,29.20,NE,45,2.3,2.3,59,0.00,CLR,,0.00,WeatherDisplay:10.37,2013-06-04 09:34:00,
2013-06-04 04:37:00,52.7,38.8,29.20,ENE,68,4.6,4.6,59,0.00,CLR,,0.00,WeatherDisplay:10.37,2013-06-04 09:37:00,
2013-06-04 04:38:00,52.7,38.8,29.20,East,90,4.6,4.6,59,0.00,CLR,,0.00,WeatherDisplay:10.37,2013-06-04 09:38:00,
2013-06-04 04:40:00,52.7,38.8,29.20,ESE,112,2.3,2.4,59,0.00,CLR,,0.00,WeatherDisplay:10.37,2013-06-04 09:40:00,
2013-06-04 04:41:00,52.7,38.8,29.20,East,90,2.3,2.3,59,0.00,CLR,,0.00,WeatherDisplay:10.37,2013-06-04 09:41:00,
2013-06-04 04:42:00,52.7,38.8,29.20,NNE,22,2.3,2.3,59,0.00,CLR,,0.00,WeatherDisplay:10.37,2013-06-04 09:42:00,
2013-06-04 04:43:00,52.7,38.8,29.20,ESE,112,2.3,2.3,59,0.00,CLR,,0.00,WeatherDisplay:10.37,2013-06-04 09:43:00,
2013-06-04 04:45:00,52.7,38.8,29.20,East,91,2.0,0.0,59,0.00,CLR,,0.00,WeatherDisplay:10.37,2013-06-04 09:45:00,
2013-06-04 04:46:00,52.7,38.8,29.20,ESE,112,2.3,2.3,59,0.00,CLR,,0.00,WeatherDisplay:10.37,2013-06-04 09:46:00,
2013-06-04 04:47:00,52.7,38.8,29.20,ESE,112,2.3,2.4,59,0.00,CLR,,0.00,WeatherDisplay:10.37,2013-06-04 09:47:00,
2013-06-04 04:49:00,52.7,38.8,29.20,ENE,68,3.5,3.5,59,0.00,CLR,,0.00,WeatherDisplay:10.37,2013-06-04 09:49:00,
2013-06-04 04:50:00,52.7,38.8,29.20,East,90,3.5,3.5,59,0.00,CLR,,0.00,WeatherDisplay:10.37,2013-06-04 09:50:00,
2013-06-04 04:51:00,52.7,38.8,29.20,ESE,112,4.6,4.6,59,0.00,CLR,,0.00,WeatherDisplay:10.37,2013-06-04 09:51:00,
2013-06-04 04:53:00,52.7,38.8,29.20,ENE,68,4.6,4.6,59,0.00,CLR,,0.00,WeatherDisplay:10.37,2013-06-04 09:53:00,
2013-06-04 04:54:00,52.7,38.8,29.20,ESE,112,4.6,4.6,59,0.00,CLR,,0.00,WeatherDisplay:10.37,2013-06-04 09:54:00,
2013-06-04 04:55:00,52.7,38.8,29.20,East,97,2.0,0.0,59,0.00,CLR,,0.00,WeatherDisplay:10.37,2013-06-04 09:55:00,
2013-06-04 04:56:00,52.7,38.8,29.20,East,90,2.6,2.6,59,0.00,CLR,,0.00,WeatherDisplay:10.37,2013-06-04 09:56:00,
2013-06-04 05:00:00,52.7,38.8,29.20,ESE,112,3.3,3.3,59,0.00,CLR,,0.00,WeatherDisplay:10.37,2013-06-04 10:00:00,
2013-06-04 05:01:00,52.7,38.8,29.20,ESE,112,3.5,3.5,59,0.00,CLR,,0.00,WeatherDisplay:10.37,2013-06-04 10:01:00,
2013-06-04 05:03:00,52.7,38.8,29.20,East,90,2.6,2.6,59,0.00,CLR,,0.00,WeatherDisplay:10.37,2013-06-04 10:03:00,
2013-06-04 05:04:00,52.9,38.9,29.20,East,90,2.3,2.3,59,0.00,CLR,,0.00,WeatherDisplay:10.37,2013-06-04 10:04:00,
2013-06-04 05:06:00,52.9,38.9,29.20,NE,45,4.6,4.6,59,0.00,CLR,,0.00,WeatherDisplay:10.37,2013-06-04 10:06:00,
2013-06-04 05:09:00,52.9,38.9,29.20,NE,45,2.3,2.4,59,0.00,CLR,,0.00,WeatherDisplay:10.37,2013-06-04 10:09:00,
2013-06-04 05:10:00,52.9,38.9,29.20,East,101,2.0,0.0,59,0.00,CLR,,0.00,WeatherDisplay:10.37,2013-06-04 10:10:00,
2013-06-04 05:12:00,53.1,39.1,29.20,NE,45,3.8,3.8,59,0.00,CLR,,0.00,WeatherDisplay:10.37,2013-06-04 10:12:00,
2013-06-04 05:13:00,53.1,39.1,29.20,SSE,158,4.6,4.6,59,0.00,CLR,,0.00,WeatherDisplay:10.37,2013-06-04 10:13:00,
2013-06-04 05:15:00,53.1,39.1,29.20,East,94,2.0,0.0,59,0.00,CLR,,0.00,WeatherDisplay:10.37,2013-06-04 10:15:00,
2013-06-04 05:17:00,53.1,38.7,29.20,SE,135,3.6,3.6,58,0.00,CLR,,0.00,WeatherDisplay:10.37,2013-06-04 10:17:00,
2013-06-04 05:18:00,53.1,38.7,29.20,East,90,4.3,4.3,58,0.00,CLR,,0.00,WeatherDisplay:10.37,2013-06-04 10:18:00,
2013-06-04 05:19:00,53.1,38.7,29.20,ESE,112,4.9,4.9,58,0.00,CLR,,0.00,WeatherDisplay:10.37,2013-06-04 10:19:00,
2013-06-04 05:21:00,53.1,38.2,29.20,ENE,68,2.6,2.6,57,0.00,CLR,,0.00,WeatherDisplay:10.37,2013-06-04 10:21:00,
2013-06-04 05:23:00,53.1,38.2,29.20,ESE,112,3.5,3.5,57,0.00,CLR,,0.00,WeatherDisplay:10.37,2013-06-04 10:23:00,
2013-06-04 05:24:00,53.1,38.2,29.20,ESE,112,4.3,4.3,57,0.00,CLR,,0.00,WeatherDisplay:10.37,2013-06-04 10:24:00,
2013-06-04 05:25:00,53.2,38.4,29.20,SSE,158,7.6,7.6,57,0.00,CLR,,0.00,WeatherDisplay:10.37,2013-06-04 10:25:00,
2013-06-04 05:27:00,53.2,37.9,29.20,South,180,8.1,8.1,56,0.00,CLR,,0.00,WeatherDisplay:10.37,2013-06-04 10:27:00,
2013-06-04 05:28:00,53.2,37.9,29.20,ENE,68,3.5,3.5,56,0.00,CLR,,0.00,WeatherDisplay:10.37,2013-06-04 10:28:00,
2013-06-04 05:29:00,53.2,37.9,29.20,East,90,3.5,3.5,56,0.00,CLR,,0.00,WeatherDisplay:10.37,2013-06-04 10:29:00,
2013-06-04 05:31:00,53.2,37.9,29.20,NE,45,5.8,5.8,56,0.00,CLR,,0.00,WeatherDisplay:10.37,2013-06-04 10:31:00,
2013-06-04 05:35:00,53.2,37.5,29.20,SSE,158,4.6,4.6,55,0.00,CLR,,0.00,WeatherDisplay:10.37,2013-06-04 10:35:00,
2013-06-04 05:36:00,53.2,37.5,29.20,ESE,112,4.6,4.6,55,0.00,CLR,,0.00,WeatherDisplay:10.37,2013-06-04 10:36:00,
2013-06-04 05:38:00,53.4,37.2,29.20,SE,135,4.6,4.6,54,0.00,CLR,,0.00,WeatherDisplay:10.37,2013-06-04 10:38:00,
2013-06-04 05:41:00,53.4,37.2,29.20,South,180,5.8,5.8,54,0.00,CLR,,0.00,WeatherDisplay:10.37,2013-06-04 10:41:00,
2013-06-04 05:42:00,53.4,36.7,29.20,SE,135,3.5,3.5,53,0.00,CLR,,0.00,WeatherDisplay:10.37,2013-06-04 10:42:00,
2013-06-04 05:43:00,53.4,36.7,29.20,East,90,4.6,4.6,53,0.00,CLR,,0.00,WeatherDisplay:10.37,2013-06-04 10:43:00,
2013-06-04 05:45:00,53.6,36.4,29.20,SE,135,4.6,4.6,52,0.00,CLR,,0.00,WeatherDisplay:10.37,2013-06-04 10:45:00,
2013-06-04 05:47:00,53.6,36.4,29.20,East,90,4.6,4.6,52,0.00,CLR,,0.00,WeatherDisplay:10.37,2013-06-04 10:47:00,
2013-06-04 05:48:00,53.6,36.4,29.20,East,90,4.6,4.6,52,0.00,CLR,,0.00,WeatherDisplay:10.37,2013-06-04 10:48:00,
2013-06-04 05:50:00,53.6,36.4,29.20,ESE,116,1.0,0.0,52,0.00,CLR,,0.00,WeatherDisplay:10.37,2013-06-04 10:50:00,
2013-06-04 05:52:00,53.6,36.4,29.20,SE,135,4.6,4.6,52,0.00,CLR,,0.00,WeatherDisplay:10.37,2013-06-04 10:52:00,
2013-06-04 05:53:00,53.6,36.4,29.20,SE,135,4.6,4.6,52,0.00,CLR,,0.00,WeatherDisplay:10.37,2013-06-04 10:53:00,
2013-06-04 05:55:00,53.8,36.6,29.20,East,90,4.3,4.3,52,0.00,CLR,,0.00,WeatherDisplay:10.37,2013-06-04 10:55:00,
2013-06-04 05:57:00,53.8,36.6,29.20,SE,135,5.8,5.8,52,0.00,CLR,,0.00,WeatherDisplay:10.37,2013-06-04 10:57:00,
2013-06-04 05:58:00,54.0,36.7,29.20,ESE,112,4.6,4.6,52,0.00,CLR,,0.00,WeatherDisplay:10.37,2013-06-04 10:58:00,
2013-06-04 06:00:00,54.0,36.2,29.20,East,90,5.8,5.8,51,0.00,CLR,,0.00,WeatherDisplay:10.37,2013-06-04 11:00:00,
2013-06-04 06:02:00,54.1,36.4,29.20,East,90,5.8,5.8,51,0.00,CLR,,0.00,WeatherDisplay:10.37,2013-06-04 11:02:00,
2013-06-04 06:03:00,54.1,36.4,29.20,SE,135,4.6,4.6,51,0.00,CLR,,0.00,WeatherDisplay:10.37,2013-06-04 11:03:00,
2013-06-04 06:04:00,54.3,36.1,29.15,SSE,158,8.1,8.1,50,0.00,CLR,,0.00,WeatherDisplay:10.37,2013-06-04 11:04:00,
2013-06-04 06:05:00,54.3,36.1,29.15,ENE,68,4.6,4.6,50,0.00,CLR,,0.00,WeatherDisplay:10.37,2013-06-04 11:05:00,
2013-06-04 06:06:00,54.3,36.1,29.15,NNW,338,2.3,2.3,50,0.00,CLR,,0.00,WeatherDisplay:10.37,2013-06-04 11:06:00,
2013-06-04 06:09:00,54.5,36.2,29.15,SSE,158,5.8,5.8,50,0.00,CLR,,0.00,WeatherDisplay:10.37,2013-06-04 11:09:00,
2013-06-04 06:10:00,54.7,35.9,29.15,SSE,158,5.8,5.8,49,0.00,CLR,,0.00,WeatherDisplay:10.37,2013-06-04 11:10:00,
2013-06-04 06:12:00,54.7,36.4,29.15,East,90,3.5,3.5,50,0.00,CLR,,0.00,WeatherDisplay:10.37,2013-06-04 11:12:00,
2013-06-04 06:14:00,54.9,36.0,29.15,ESE,112,4.6,4.6,49,0.00,CLR,,0.00,WeatherDisplay:10.37,2013-06-04 11:14:00,
2013-06-04 06:15:00,55.0,35.7,29.15,ESE,112,2.9,2.9,48,0.00,CLR,,0.00,WeatherDisplay:10.37,2013-06-04 11:15:00,
2013-06-04 06:18:00,55.2,36.4,29.15,NE,45,5.8,5.8,49,0.00,CLR,,0.00,WeatherDisplay:10.37,2013-06-04 11:18:00,
2013-06-04 06:19:00,55.4,36.0,29.18,NNE,22,5.8,5.8,48,0.00,CLR,,0.00,WeatherDisplay:10.37,2013-06-04 11:19:00,
2013-06-04 06:20:00,55.4,36.0,29.18,SE,135,5.8,5.8,48,0.00,CLR,,0.00,WeatherDisplay:10.37,2013-06-04 11:20:00,
2013-06-04 06:22:00,55.4,36.0,29.18,SE,135,6.9,6.9,48,0.00,CLR,,0.00,WeatherDisplay:10.37,2013-06-04 11:22:00,
2013-06-04 06:24:00,55.8,35.8,29.18,SSE,158,5.8,5.8,47,0.00,CLR,,0.00,WeatherDisplay:10.37,2013-06-04 11:24:00,
2013-06-04 06:25:00,55.8,35.8,29.18,SSE,158,5.8,5.8,47,0.00,CLR,,0.00,WeatherDisplay:10.37,2013-06-04 11:25:00,
2013-06-04 06:26:00,55.9,36.0,29.18,SE,135,4.9,4.9,47,0.00,CLR,,0.00,WeatherDisplay:10.37,2013-06-04 11:26:00,
2013-06-04 06:27:00,56.1,36.1,29.18,ESE,112,5.9,6.2,47,0.00,CLR,,0.00,WeatherDisplay:10.37,2013-06-04 11:27:00,
2013-06-04 06:31:00,56.7,36.1,29.18,East,90,10.4,10.4,46,0.00,CLR,,0.00,WeatherDisplay:10.37,2013-06-04 11:31:00,
2013-06-04 06:32:00,56.7,36.1,29.18,SE,135,9.2,9.2,46,0.00,CLR,,0.00,WeatherDisplay:10.37,2013-06-04 11:32:00,
2013-06-04 06:33:00,56.8,36.3,29.18,ESE,112,5.9,5.9,46,0.00,CLR,,0.00,WeatherDisplay:10.37,2013-06-04 11:33:00,
2013-06-04 06:35:00,57.2,36.0,29.18,South,180,4.6,4.6,45,0.00,CLR,,0.00,WeatherDisplay:10.37,2013-06-04 11:35:00,
2013-06-04 06:36:00,57.2,36.0,29.18,South,180,5.8,5.8,45,0.00,CLR,,0.00,WeatherDisplay:10.37,2013-06-04 11:36:00,
2013-06-04 06:37:00,57.6,36.4,29.18,SE,135,5.9,5.9,45,0.00,CLR,,0.00,WeatherDisplay:10.37,2013-06-04 11:37:00,
2013-06-04 06:39:00,57.6,36.4,29.18,SE,135,10.0,10.0,45,0.00,CLR,,0.00,WeatherDisplay:10.37,2013-06-04 11:39:00,
2013-06-04 06:42:00,57.7,36.0,29.18,SE,135,8.1,8.1,44,0.00,CLR,,0.00,WeatherDisplay:10.37,2013-06-04 11:42:00,
2013-06-04 06:43:00,57.9,35.5,29.18,ESE,112,7.1,7.1,43,0.00,CLR,,0.00,WeatherDisplay:10.37,2013-06-04 11:43:00,
2013-06-04 06:44:00,57.9,35.5,29.18,SE,135,6.9,6.9,43,0.00,CLR,,0.00,WeatherDisplay:10.37,2013-06-04 11:44:00,
2013-06-04 06:48:00,58.5,35.4,29.18,East,90,4.7,4.7,42,0.00,CLR,,0.00,WeatherDisplay:10.37,2013-06-04 11:48:00,
2013-06-04 06:50:00,58.5,35.5,29.15,SE,140,5.0,0.0,42,0.00,CLR,,0.00,WeatherDisplay:10.37,2013-06-04 11:50:00,
2013-06-04 06:51:00,58.8,36.4,29.15,ENE,68,10.4,10.4,43,0.00,CLR,,0.00,WeatherDisplay:10.37,2013-06-04 11:51:00,
2013-06-04 06:53:00,59.0,35.3,29.15,SE,135,7.4,7.4,41,0.00,CLR,,0.00,WeatherDisplay:10.37,2013-06-04 11:53:00,
2013-06-04 06:54:00,59.2,36.1,29.15,SSE,158,6.9,6.9,42,0.00,CLR,,0.00,WeatherDisplay:10.37,2013-06-04 11:54:00,
2013-06-04 06:55:00,59.2,36.1,29.15,SE,141,5.0,0.0,42,0.00,CLR,,0.00,WeatherDisplay:10.37,2013-06-04 11:55:00,
2013-06-04 07:00:00,60.0,36.2,29.15,SSE,149,3.0,0.0,41,0.00,CLR,,0.00,WeatherDisplay:10.37,2013-06-04 12:00:00,
2013-06-04 07:02:00,60.4,36.0,29.15,SE,135,5.8,5.8,40,0.00,CLR,,0.00,WeatherDisplay:10.37,2013-06-04 12:02:00,
2013-06-04 07:05:00,61.0,36.5,29.20,SSE,158,5.8,5.9,40,0.00,CLR,,0.00,WeatherDisplay:10.37,2013-06-04 12:05:00,
2013-06-04 07:06:00,61.2,35.3,29.20,SE,135,6.9,6.9,38,0.00,CLR,,0.00,WeatherDisplay:10.37,2013-06-04 12:06:00,
2013-06-04 07:07:00,61.2,35.3,29.20,SE,135,8.1,8.1,38,0.00,CLR,,0.00,WeatherDisplay:10.37,2013-06-04 12:07:00,
2013-06-04 07:08:00,61.3,35.5,29.20,East,90,12.7,12.7,38,0.00,CLR,,0.00,WeatherDisplay:10.37,2013-06-04 12:08:00,
2013-06-04 07:12:00,61.7,35.1,29.20,South,180,10.4,10.4,37,0.00,CLR,,0.00,WeatherDisplay:10.37,2013-06-04 12:12:00,
2013-06-04 07:13:00,61.9,35.3,29.20,SSE,158,8.1,8.1,37,0.00,CLR,,0.00,WeatherDisplay:10.37,2013-06-04 12:13:00,
2013-06-04 07:15:00,61.9,34.6,29.20,SE,140,5.0,0.0,36,0.00,CLR,,0.00,WeatherDisplay:10.37,2013-06-04 12:15:00,
2013-06-04 07:17:00,63.0,35.6,29.20,SE,135,9.2,9.2,36,0.00,CLR,,0.00,WeatherDisplay:10.37,2013-06-04 12:17:00,
2013-06-04 07:18:00,63.1,35.7,29.20,ESE,112,5.8,5.8,36,0.00,CLR,,0.00,WeatherDisplay:10.37,2013-06-04 12:18:00,
2013-06-04 07:20:00,63.9,35.7,29.20,SE,135,10.7,10.7,35,0.00,CLR,,0.00,WeatherDisplay:10.37,2013-06-04 12:20:00,
2013-06-04 07:22:00,64.4,36.8,29.20,ESE,112,8.1,8.1,36,0.00,CLR,,0.00,WeatherDisplay:10.37,2013-06-04 12:22:00,
2013-06-04 07:24:00,64.9,36.6,29.20,South,180,6.9,6.9,35,0.00,CLR,,0.00,WeatherDisplay:10.37,2013-06-04 12:24:00,
2013-06-04 07:25:00,64.9,36.6,29.20,South,180,6.9,6.9,35,0.00,CLR,,0.00,WeatherDisplay:10.37,2013-06-04 12:25:00,
2013-06-04 07:26:00,65.5,37.1,29.20,ESE,112,8.1,8.1,35,0.00,CLR,,0.00,WeatherDisplay:10.37,2013-06-04 12:26:00,
2013-06-04 07:27:00,65.8,37.4,29.20,ESE,112,5.8,5.8,35,0.00,CLR,,0.00,WeatherDisplay:10.37,2013-06-04 12:27:00,
2013-06-04 07:31:00,66.7,37.5,29.20,SSE,158,5.8,5.8,34,0.00,CLR,,0.00,WeatherDisplay:10.37,2013-06-04 12:31:00,
2013-06-04 07:32:00,66.9,36.9,29.20,SSE,158,8.1,8.1,33,0.00,CLR,,0.00,WeatherDisplay:10.37,2013-06-04 12:32:00,
2013-06-04 07:33:00,67.3,37.2,29.20,South,180,5.8,5.8,33,0.00,CLR,,0.00,WeatherDisplay:10.37,2013-06-04 12:33:00,
2013-06-04 07:36:00,68.0,37.8,29.20,SE,135,5.8,5.8,33,0.00,CLR,,0.00,WeatherDisplay:10.37,2013-06-04 12:36:00,
2013-06-04 07:38:00,68.5,37.5,29.20,SSE,158,8.1,8.1,32,0.00,CLR,,0.00,WeatherDisplay:10.37,2013-06-04 12:38:00,
2013-06-04 07:40:00,68.4,32.1,29.20,South,180,12.5,12.5,26,0.00,CLR,,0.00,WeatherDisplay:10.37,2013-06-04 12:40:00,
2013-06-04 07:42:00,68.9,36.2,29.20,ESE,112,8.1,8.1,30,0.00,CLR,,0.00,WeatherDisplay:10.37,2013-06-04 12:42:00,
2013-06-04 07:43:00,68.7,33.4,29.20,SE,135,8.1,8.1,27,0.00,CLR,,0.00,WeatherDisplay:10.37,2013-06-04 12:43:00,
2013-06-04 07:44:00,68.7,33.4,29.20,SE,135,5.8,5.8,27,0.00,CLR,,0.00,WeatherDisplay:10.37,2013-06-04 12:44:00,
2013-06-04 07:45:00,69.1,36.3,29.20,ESE,112,9.4,9.4,30,0.00,CLR,,0.00,WeatherDisplay:10.37,2013-06-04 12:45:00,
2013-06-04 07:47:00,69.1,34.6,29.20,East,90,6.9,6.9,28,0.00,CLR,,0.00,WeatherDisplay:10.37,2013-06-04 12:47:00,
2013-06-04 07:50:00,69.1,34.6,29.20,SE,132,5.0,0.0,28,0.00,CLR,,0.00,WeatherDisplay:10.37,2013-06-04 12:50:00,
2013-06-04 07:52:00,69.3,33.8,29.20,South,180,8.1,8.1,27,0.00,CLR,,0.00,WeatherDisplay:10.37,2013-06-04 12:52:00,
2013-06-04 07:57:00,69.3,32.9,29.20,SE,135,4.6,4.6,26,0.00,CLR,,0.00,WeatherDisplay:10.37,2013-06-04 12:57:00,
2013-06-04 07:58:00,69.3,34.7,29.20,SSE,158,6.0,6.0,28,0.00,CLR,,0.00,WeatherDisplay:10.37,2013-06-04 12:58:00,
2013-06-04 07:59:00,69.4,34.9,29.20,SE,135,5.8,5.8,28,0.00,CLR,,0.00,WeatherDisplay:10.37,2013-06-04 12:59:00,
2013-06-04 08:02:00,69.3,32.9,29.20,SE,135,8.1,8.1,26,0.00,CLR,,0.00,WeatherDisplay:10.37,2013-06-04 13:02:00,
2013-06-04 08:03:00,69.1,32.7,29.20,ESE,112,6.9,6.9,26,0.00,CLR,,0.00,WeatherDisplay:10.37,2013-06-04 13:03:00,
2013-06-04 08:04:00,69.1,32.7,29.18,SE,135,8.1,8.1,26,0.00,CLR,,0.00,WeatherDisplay:10.37,2013-06-04 13:04:00,
2013-06-04 08:05:00,69.1,32.7,29.18,SE,142,5.0,0.0,26,0.00,CLR,,0.00,WeatherDisplay:10.37,2013-06-04 13:05:00,
2013-06-04 08:07:00,69.3,33.8,29.18,SSE,158,5.8,5.8,27,0.00,CLR,,0.00,WeatherDisplay:10.37,2013-06-04 13:07:00,
2013-06-04 08:08:00,69.3,33.8,29.18,SE,135,7.8,7.8,27,0.00,CLR,,0.00,WeatherDisplay:10.37,2013-06-04 13:08:00,
2013-06-04 08:09:00,69.1,31.8,29.18,SE,135,9.2,9.2,25,0.00,CLR,,0.00,WeatherDisplay:10.37,2013-06-04 13:09:00,
2013-06-04 08:10:00,69.1,31.8,29.18,SSE,153,7.0,0.0,25,0.00,CLR,,0.00,WeatherDisplay:10.37,2013-06-04 13:10:00,
2013-06-04 08:12:00,68.9,32.6,29.18,SSE,158,8.1,8.1,26,0.00,CLR,,0.00,WeatherDisplay:10.37,2013-06-04 13:12:00,
2013-06-04 08:13:00,69.1,33.7,29.18,SW,225,7.4,7.4,27,0.00,CLR,,0.00,WeatherDisplay:10.37,2013-06-04 13:13:00,
2013-06-04 08:14:00,69.1,33.7,29.18,WSW,248,6.9,6.9,27,0.00,CLR,,0.00,WeatherDisplay:10.37,2013-06-04 13:14:00,
2013-06-04 08:15:00,69.1,32.7,29.18,SSE,168,3.0,0.0,26,0.00,CLR,,0.00,WeatherDisplay:10.37,2013-06-04 13:15:00,
2013-06-04 08:16:00,68.9,32.6,29.18,SSW,202,4.6,4.6,26,0.00,CLR,,0.00,WeatherDisplay:10.37,2013-06-04 13:16:00,
2013-06-04 08:18:00,69.1,33.7,29.18,SE,135,7.4,7.4,27,0.00,CLR,,0.00,WeatherDisplay:10.37,2013-06-04 13:18:00,
2013-06-04 08:19:00,69.3,34.7,29.20,SE,135,6.9,6.9,28,0.00,CLR,,0.00,WeatherDisplay:10.37,2013-06-04 13:19:00,
2013-06-04 08:20:00,69.3,34.7,29.20,SSE,158,6.0,6.0,28,0.00,CLR,,0.00,WeatherDisplay:10.37,2013-06-04 13:20:00,
2013-06-04 08:23:00,69.4,34.0,29.20,SSE,158,9.2,9.2,27,0.00,CLR,,0.00,WeatherDisplay:10.37,2013-06-04 13:23:00,
2013-06-04 08:24:00,69.3,33.8,29.20,SSE,158,4.6,5.4,27,0.00,CLR,,0.00,WeatherDisplay:10.37,2013-06-04 13:24:00,
2013-06-04 08:25:00,69.3,33.8,29.20,SSE,156,3.0,0.0,27,0.00,CLR,,0.00,WeatherDisplay:10.37,2013-06-04 13:25:00,
2013-06-04 08:26:00,69.3,33.8,29.20,South,180,6.9,6.9,27,0.00,CLR,,0.00,WeatherDisplay:10.37,2013-06-04 13:26:00,
2013-06-04 08:29:00,69.4,34.0,29.20,ESE,112,9.2,9.2,27,0.00,CLR,,0.00,WeatherDisplay:10.37,2013-06-04 13:29:00,
2013-06-04 08:30:00,69.4,34.0,29.20,SSE,160,6.0,0.0,27,0.00,CLR,,0.00,WeatherDisplay:10.37,2013-06-04 13:30:00,
2013-06-04 08:34:00,69.4,34.0,29.20,SE,135,8.1,8.1,27,0.00,CLR,,0.00,WeatherDisplay:10.37,2013-06-04 13:34:00,
2013-06-04 08:36:00,69.4,34.0,29.20,South,180,8.1,8.1,27,0.00,CLR,,0.00,WeatherDisplay:10.37,2013-06-04 13:36:00,
2013-06-04 08:38:00,69.4,34.0,29.20,ESE,112,10.4,10.4,27,0.00,CLR,,0.00,WeatherDisplay:10.37,2013-06-04 13:38:00,
2013-06-04 08:42:00,69.3,32.9,29.20,SE,135,8.1,8.1,26,0.00,CLR,,0.00,WeatherDisplay:10.37,2013-06-04 13:42:00,
2013-06-04 08:43:00,69.3,32.9,29.20,SE,135,8.1,8.1,26,0.00,CLR,,0.00,WeatherDisplay:10.37,2013-06-04 13:43:00,
2013-06-04 08:44:00,69.3,32.9,29.20,South,180,5.8,5.8,26,0.00,CLR,,0.00,WeatherDisplay:10.37,2013-06-04 13:44:00,
2013-06-04 08:45:00,69.3,33.8,29.20,South,180,6.2,6.2,27,0.00,CLR,,0.00,WeatherDisplay:10.37,2013-06-04 13:45:00,
2013-06-04 08:47:00,69.3,32.9,29.20,SE,135,6.9,6.9,26,0.00,CLR,,0.00,WeatherDisplay:10.37,2013-06-04 13:47:00,
2013-06-04 08:50:00,69.5,34.0,29.20,SSE,163,3.0,0.0,27,0.00,CLR,,0.00,WeatherDisplay:10.37,2013-06-04 13:50:00,
2013-06-04 08:52:00,69.6,34.1,29.20,SSE,158,5.8,5.8,27,0.00,CLR,,0.00,WeatherDisplay:10.37,2013-06-04 13:52:00,
2013-06-04 08:53:00,69.8,34.3,29.20,SE,135,5.8,5.8,27,0.00,CLR,,0.00,WeatherDisplay:10.37,2013-06-04 13:53:00,
2013-06-04 08:55:00,69.8,33.3,29.20,East,90,5.8,5.8,26,0.00,CLR,,0.00,WeatherDisplay:10.37,2013-06-04 13:55:00,
2013-06-04 08:57:00,70.0,33.5,29.20,SE,135,8.1,8.1,26,0.00,CLR,,0.00,WeatherDisplay:10.37,2013-06-04 13:57:00,
2013-06-04 08:58:00,69.8,32.4,29.20,SSE,158,6.9,6.9,25,0.00,CLR,,0.00,WeatherDisplay:10.37,2013-06-04 13:58:00,
2013-06-04 09:00:00,70.0,33.5,29.20,SSE,158,9.2,9.2,26,0.00,CLR,,0.00,WeatherDisplay:10.37,2013-06-04 14:00:00,
2013-06-04 09:03:00,70.0,33.5,29.20,SE,135,5.8,5.8,26,0.00,CLR,,0.00,WeatherDisplay:10.37,2013-06-04 14:03:00,
2013-06-04 09:04:00,70.2,34.6,29.20,ESE,112,7.8,7.8,27,0.00,CLR,,0.00,WeatherDisplay:10.37,2013-06-04 14:04:00,
2013-06-04 09:05:00,70.2,34.6,29.20,SSE,158,8.1,8.1,27,0.00,CLR,,0.00,WeatherDisplay:10.37,2013-06-04 14:05:00,
2013-06-04 09:06:00,70.2,33.7,29.20,ENE,68,8.1,8.1,26,0.00,CLR,,0.00,WeatherDisplay:10.37,2013-06-04 14:06:00,
2013-06-04 09:10:00,70.3,32.8,29.20,SE,135,6.0,0.0,25,0.00,CLR,,0.00,WeatherDisplay:10.37,2013-06-04 14:10:00,
2013-06-04 09:11:00,70.3,32.8,29.20,SE,135,3.6,3.6,25,0.00,CLR,,0.00,WeatherDisplay:10.37,2013-06-04 14:11:00,
2013-06-04 09:13:00,70.5,33.0,29.20,SSE,158,8.1,8.1,25,0.00,CLR,,0.00,WeatherDisplay:10.37,2013-06-04 14:13:00,
2013-06-04 09:14:00,70.7,34.1,29.20,ESE,112,6.9,6.9,26,0.00,CLR,,0.00,WeatherDisplay:10.37,2013-06-04 14:14:00,
2013-06-04 09:15:00,70.7,34.1,29.20,SSE,158,7.4,7.4,26,0.00,CLR,,0.00,WeatherDisplay:10.37,2013-06-04 14:15:00,
2013-06-04 09:18:00,70.2,32.7,29.20,SE,135,3.6,3.6,25,0.00,CLR,,0.00,WeatherDisplay:10.37,2013-06-04 14:18:00,
2013-06-04 09:19:00,70.2,32.7,29.20,SSE,158,5.8,5.8,25,0.00,CLR,,0.00,WeatherDisplay:10.37,2013-06-04 14:19:00,
2013-06-04 09:21:00,69.6,32.2,29.20,South,180,5.8,5.8,25,0.00,CLR,,0.00,WeatherDisplay:10.37,2013-06-04 14:21:00,
2013-06-04 09:23:00,69.8,31.4,29.20,SSE,158,3.6,3.6,24,0.00,CLR,,0.00,WeatherDisplay:10.37,2013-06-04 14:23:00,
2013-06-04 09:25:00,70.2,32.7,29.20,SSE,158,10.4,10.4,25,0.00,CLR,,0.00,WeatherDisplay:10.37,2013-06-04 14:25:00,
2013-06-04 09:26:00,70.2,32.7,29.20,ESE,112,9.2,9.2,25,0.00,CLR,,0.00,WeatherDisplay:10.37,2013-06-04 14:26:00,
2013-06-04 09:30:00,70.2,31.7,29.20,SSE,147,3.0,0.0,24,0.00,CLR,,0.00,WeatherDisplay:10.37,2013-06-04 14:30:00,
2013-06-04 09:31:00,70.2,32.7,29.20,West,270,5.8,5.8,25,0.00,CLR,,0.00,WeatherDisplay:10.37,2013-06-04 14:31:00,
2013-06-04 09:32:00,70.2,32.7,29.20,ENE,68,2.3,2.3,25,0.00,CLR,,0.00,WeatherDisplay:10.37,2013-06-04 14:32:00,
2013-06-04 09:33:00,70.2,32.7,29.20,SSW,202,2.3,2.3,25,0.00,CLR,,0.00,WeatherDisplay:10.37,2013-06-04 14:33:00,
2013-06-04 09:35:00,70.0,32.5,29.23,SE,130,2.0,0.0,25,0.00,CLR,,0.00,WeatherDisplay:10.37,2013-06-04 14:35:00,
2013-06-04 09:37:00,69.8,31.4,29.24,SSE,158,8.1,8.1,24,0.00,CLR,,0.00,WeatherDisplay:10.37,2013-06-04 14:37:00,
2013-06-04 09:38:00,69.8,31.4,29.24,South,180,6.9,6.9,24,0.00,CLR,,0.00,WeatherDisplay:10.37,2013-06-04 14:38:00,
2013-06-04 09:40:00,69.8,31.4,29.24,SE,144,3.0,0.0,24,0.00,CLR,,0.00,WeatherDisplay:10.37,2013-06-04 14:40:00,
2013-06-04 09:43:00,70.3,32.8,29.24,SSE,158,8.1,8.1,25,0.00,CLR,,0.00,WeatherDisplay:10.37,2013-06-04 14:43:00,
2013-06-04 09:44:00,70.3,32.8,29.24,SE,135,10.4,10.4,25,0.00,CLR,,0.00,WeatherDisplay:10.37,2013-06-04 14:44:00,
2013-06-04 09:45:00,70.5,32.9,29.24,SE,146,7.0,0.0,25,0.00,CLR,,0.00,WeatherDisplay:10.37,2013-06-04 14:45:00,
2013-06-04 09:47:00,70.7,32.1,29.24,SE,135,5.8,5.8,24,0.00,CLR,,0.00,WeatherDisplay:10.37,2013-06-04 14:47:00,
2013-06-04 09:50:00,70.7,32.1,29.24,ESE,123,5.0,0.0,24,0.00,CLR,,0.00,WeatherDisplay:10.37,2013-06-04 14:50:00,
2013-06-04 09:51:00,70.7,32.1,29.24,ENE,68,6.2,6.2,24,0.00,CLR,,0.00,WeatherDisplay:10.37,2013-06-04 14:51:00,
2013-06-04 09:53:00,69.8,31.4,29.24,ENE,68,8.1,8.1,24,0.00,CLR,,0.00,WeatherDisplay:10.37,2013-06-04 14:53:00,
2013-06-04 09:55:00,70.0,30.5,29.24,ESE,112,6.0,6.0,23,0.00,CLR,,0.00,WeatherDisplay:10.37,2013-06-04 14:55:00,
2013-06-04 09:56:00,70.0,30.5,29.24,East,90,5.8,5.8,23,0.00,CLR,,0.00,WeatherDisplay:10.37,2013-06-04 14:56:00,
2013-06-04 09:57:00,70.3,30.8,29.24,South,180,5.8,5.8,23,0.00,CLR,,0.00,WeatherDisplay:10.37,2013-06-04 14:57:00,
2013-06-04 09:58:00,70.3,31.8,29.24,SSE,158,5.8,5.8,24,0.00,CLR,,0.00,WeatherDisplay:10.37,2013-06-04 14:58:00,
2013-06-04 10:00:00,71.1,33.4,29.24,East,90,5.8,5.8,25,0.00,CLR,,0.00,WeatherDisplay:10.37,2013-06-04 15:00:00,
2013-06-04 10:01:00,70.9,31.2,29.24,South,180,4.6,4.6,23,0.00,CLR,,0.00,WeatherDisplay:10.37,2013-06-04 15:01:00,
2013-06-04 10:02:00,70.9,32.3,29.24,SSE,158,3.8,3.8,24,0.00,CLR,,0.00,WeatherDisplay:10.37,2013-06-04 15:02:00,
2013-06-04 10:04:00,71.1,32.4,29.26,NNE,22,4.7,4.7,24,0.00,CLR,,0.00,WeatherDisplay:10.37,2013-06-04 15:04:00,
2013-06-04 10:05:00,71.1,32.4,29.26,East,90,5.9,5.9,24,0.00,CLR,,0.00,WeatherDisplay:10.37,2013-06-04 15:05:00,
2013-06-04 10:07:00,71.1,33.4,29.26,ESE,112,3.8,3.8,25,0.00,CLR,,0.00,WeatherDisplay:10.37,2013-06-04 15:07:00,
2013-06-04 10:08:00,71.2,32.6,29.26,ENE,68,5.8,5.8,24,0.00,CLR,,0.00,WeatherDisplay:10.37,2013-06-04 15:08:00,
2013-06-04 10:09:00,71.1,31.4,29.26,ESE,112,5.8,5.8,23,0.00,CLR,,0.00,WeatherDisplay:10.37,2013-06-04 15:09:00,
2013-06-04 10:10:00,70.7,31.1,29.26,SE,135,5.8,5.8,23,0.00,CLR,,0.00,WeatherDisplay:10.37,2013-06-04 15:10:00,
2013-06-04 10:12:00,70.7,32.1,29.26,East,90,4.7,4.7,24,0.00,CLR,,0.00,WeatherDisplay:10.37,2013-06-04 15:12:00,
2013-06-04 10:14:00,70.7,31.1,29.26,ENE,68,3.5,3.5,23,0.00,CLR,,0.00,WeatherDisplay:10.37,2013-06-04 15:14:00,
2013-06-04 10:17:00,71.2,32.6,29.26,South,180,4.9,4.9,24,0.00,CLR,,0.00,WeatherDisplay:10.37,2013-06-04 15:17:00,
2013-06-04 10:18:00,71.4,33.7,29.26,SE,135,4.6,4.6,25,0.00,CLR,,0.00,WeatherDisplay:10.37,2013-06-04 15:18:00,
2013-06-04 10:21:00,71.6,31.8,29.26,NE,45,2.3,2.3,23,0.00,CLR,,0.00,WeatherDisplay:10.37,2013-06-04 15:21:00,
2013-06-04 10:22:00,71.8,32.0,29.26,SSW,202,1.1,1.1,23,0.00,CLR,,0.00,WeatherDisplay:10.37,2013-06-04 15:22:00,
2013-06-04 10:24:00,72.3,33.5,29.26,SE,135,5.8,5.8,24,0.00,CLR,,0.00,WeatherDisplay:10.37,2013-06-04 15:24:00,
2013-06-04 10:25:00,72.3,33.4,29.26,ESE,118,2.0,0.0,24,0.00,CLR,,0.00,WeatherDisplay:10.37,2013-06-04 15:25:00,
2013-06-04 10:27:00,72.1,32.3,29.26,East,90,2.3,2.3,23,0.00,CLR,,0.00,WeatherDisplay:10.37,2013-06-04 15:27:00,
2013-06-04 10:30:00,72.1,32.3,29.26,SSE,158,5.8,5.8,23,0.00,CLR,,0.00,WeatherDisplay:10.37,2013-06-04 15:30:00,
2013-06-04 10:32:00,72.7,33.8,29.26,SSE,158,7.1,7.1,24,0.00,CLR,,0.00,WeatherDisplay:10.37,2013-06-04 15:32:00,
2013-06-04 10:33:00,72.9,33.9,29.26,SSE,158,6.9,6.9,24,0.00,CLR,,0.00,WeatherDisplay:10.37,2013-06-04 15:33:00,
2013-06-04 10:36:00,73.4,33.3,29.26,ESE,112,4.6,4.6,23,0.00,CLR,,0.00,WeatherDisplay:10.37,2013-06-04 15:36:00,
2013-06-04 10:39:00,73.6,33.5,29.26,ENE,68,5.8,5.8,23,0.00,CLR,,0.00,WeatherDisplay:10.37,2013-06-04 15:39:00,
2013-06-04 10:40:00,73.6,33.5,29.26,SE,142,3.0,0.0,23,0.00,CLR,,0.00,WeatherDisplay:10.37,2013-06-04 15:40:00,
2013-06-04 10:41:00,73.4,33.3,29.26,ESE,112,5.8,5.8,23,0.00,CLR,,0.00,WeatherDisplay:10.37,2013-06-04 15:41:00,
2013-06-04 10:43:00,73.9,33.8,29.26,North,0,5.8,5.8,23,0.00,CLR,,0.00,WeatherDisplay:10.37,2013-06-04 15:43:00,
2013-06-04 10:45:00,73.9,33.8,29.26,ESE,106,3.0,0.0,23,0.00,CLR,,0.00,WeatherDisplay:10.37,2013-06-04 15:45:00,
2013-06-04 10:47:00,73.8,33.6,29.26,ESE,112,3.5,3.5,23,0.00,CLR,,0.00,WeatherDisplay:10.37,2013-06-04 15:47:00,
2013-06-04 10:48:00,73.8,32.5,29.26,East,90,8.1,8.1,22,0.00,CLR,,0.00,WeatherDisplay:10.37,2013-06-04 15:48:00,
2013-06-04 10:50:00,73.9,32.7,29.24,SE,124,5.0,0.0,22,0.00,CLR,,0.00,WeatherDisplay:10.37,2013-06-04 15:50:00,
2013-06-04 10:52:00,74.1,32.8,29.24,SSE,158,5.8,5.8,22,0.00,CLR,,0.00,WeatherDisplay:10.37,2013-06-04 15:52:00,
2013-06-04 10:54:00,74.1,32.8,29.24,ESE,112,5.8,5.8,22,0.00,CLR,,0.00,WeatherDisplay:10.37,2013-06-04 15:54:00,
2013-06-04 10:55:00,74.1,32.8,29.24,South,180,6.2,6.2,22,0.00,CLR,,0.00,WeatherDisplay:10.37,2013-06-04 15:55:00,
2013-06-04 10:56:00,74.3,33.0,29.24,SE,135,5.8,5.9,22,0.00,CLR,,0.00,WeatherDisplay:10.37,2013-06-04 15:56:00,
2013-06-04 10:58:00,74.5,33.1,29.24,SE,135,8.1,8.1,22,0.00,CLR,,0.00,WeatherDisplay:10.37,2013-06-04 15:58:00,
2013-06-04 11:00:00,74.7,33.3,29.24,ESE,112,6.9,6.9,22,0.00,CLR,,0.00,WeatherDisplay:10.37,2013-06-04 16:00:00,
2013-06-04 11:02:00,73.8,31.4,29.24,ENE,68,4.6,4.6,21,0.00,CLR,,0.00,WeatherDisplay:10.37,2013-06-04 16:02:00,
2013-06-04 11:05:00,73.4,32.2,29.24,East,90,5.8,5.8,22,0.00,CLR,,0.00,WeatherDisplay:10.37,2013-06-04 16:05:00,
2013-06-04 11:07:00,73.4,31.1,29.24,ENE,68,4.6,4.6,21,0.00,CLR,,0.00,WeatherDisplay:10.37,2013-06-04 16:07:00,
2013-06-04 11:09:00,73.0,31.9,29.24,ESE,112,5.8,5.8,22,0.00,CLR,,0.00,WeatherDisplay:10.37,2013-06-04 16:09:00,
2013-06-04 11:10:00,73.2,32.1,29.24,SE,135,6.0,6.0,22,0.00,CLR,,0.00,WeatherDisplay:10.37,2013-06-04 16:10:00,
2013-06-04 11:12:00,73.4,32.2,29.24,SSE,158,5.8,5.8,22,0.00,CLR,,0.00,WeatherDisplay:10.37,2013-06-04 16:12:00,
2013-06-04 11:13:00,73.8,32.5,29.24,SE,135,6.9,6.9,22,0.00,CLR,,0.00,WeatherDisplay:10.37,2013-06-04 16:13:00,
2013-06-04 11:14:00,73.8,32.5,29.24,East,90,6.9,6.9,22,0.00,CLR,,0.00,WeatherDisplay:10.37,2013-06-04 16:14:00,
2013-06-04 11:15:00,73.8,32.5,29.24,SE,133,6.0,0.0,22,0.00,CLR,,0.00,WeatherDisplay:10.37,2013-06-04 16:15:00,
2013-06-04 11:17:00,73.0,31.9,29.24,SSE,158,3.1,3.1,22,0.00,CLR,,0.00,WeatherDisplay:10.37,2013-06-04 16:17:00,
2013-06-04 11:19:00,72.9,31.8,29.26,SE,135,2.9,2.9,22,0.00,CLR,,0.00,WeatherDisplay:10.37,2013-06-04 16:19:00,
2013-06-04 11:20:00,73.2,33.2,29.26,ESE,112,3.5,3.5,23,0.00,CLR,,0.00,WeatherDisplay:10.37,2013-06-04 16:20:00,
2013-06-04 11:21:00,73.2,33.2,29.26,SSE,158,3.8,3.8,23,0.00,CLR,,0.00,WeatherDisplay:10.37,2013-06-04 16:21:00,
2013-06-04 11:22:00,73.2,33.2,29.26,ENE,68,3.5,3.5,23,0.00,CLR,,0.00,WeatherDisplay:10.37,2013-06-04 16:22:00,
2013-06-04 11:23:00,73.4,32.2,29.26,East,90,4.9,4.9,22,0.00,CLR,,0.00,WeatherDisplay:10.37,2013-06-04 16:23:00,
2013-06-04 11:25:00,73.4,31.1,29.26,SSE,158,4.6,4.6,21,0.00,CLR,,0.00,WeatherDisplay:10.37,2013-06-04 16:25:00,
2013-06-04 11:26:00,73.4,31.1,29.26,South,180,3.5,3.5,21,0.00,CLR,,0.00,WeatherDisplay:10.37,2013-06-04 16:26:00,
2013-06-04 11:28:00,73.6,32.4,29.26,South,180,3.3,3.3,22,0.00,CLR,,0.00,WeatherDisplay:10.37,2013-06-04 16:28:00,
2013-06-04 11:30:00,73.9,33.8,29.26,SW,225,4.6,4.6,23,0.00,CLR,,0.00,WeatherDisplay:10.37,2013-06-04 16:30:00,
2013-06-04 11:31:00,73.9,33.8,29.26,WSW,248,4.6,4.6,23,0.00,CLR,,0.00,WeatherDisplay:10.37,2013-06-04 16:31:00,
2013-06-04 11:32:00,73.9,33.8,29.26,West,270,1.1,1.4,23,0.00,CLR,,0.00,WeatherDisplay:10.37,2013-06-04 16:32:00,
2013-06-04 11:33:00,73.9,32.7,29.26,West,270,3.5,3.5,22,0.00,CLR,,0.00,WeatherDisplay:10.37,2013-06-04 16:33:00,
2013-06-04 11:34:00,73.9,33.8,29.26,SW,225,3.5,3.5,23,0.00,CLR,,0.00,WeatherDisplay:10.37,2013-06-04 16:34:00,
2013-06-04 11:37:00,73.8,32.5,29.26,West,270,3.5,4.0,22,0.00,CLR,,0.00,WeatherDisplay:10.37,2013-06-04 16:37:00,
2013-06-04 11:39:00,73.8,32.5,29.26,SSW,202,4.6,4.6,22,0.00,CLR,,0.00,WeatherDisplay:10.37,2013-06-04 16:39:00,
2013-06-04 11:40:00,73.8,32.5,29.26,SW,220,2.0,0.0,22,0.00,CLR,,0.00,WeatherDisplay:10.37,2013-06-04 16:40:00,
2013-06-04 11:42:00,74.1,33.9,29.26,SW,225,2.3,2.3,23,0.00,CLR,,0.00,WeatherDisplay:10.37,2013-06-04 16:42:00,
2013-06-04 11:44:00,74.5,34.2,29.26,WSW,248,4.3,4.3,23,0.00,CLR,,0.00,WeatherDisplay:10.37,2013-06-04 16:44:00,
2013-06-04 11:45:00,74.5,34.2,29.26,SW,216,2.0,0.0,23,0.00,CLR,,0.00,WeatherDisplay:10.37,2013-06-04 16:45:00,
2013-06-04 11:46:00,74.7,34.4,29.26,SW,225,2.3,2.3,23,0.00,CLR,,0.00,WeatherDisplay:10.37,2013-06-04 16:46:00,
2013-06-04 11:48:00,74.8,35.6,29.26,SSE,158,3.5,3.5,24,0.00,CLR,,0.00,WeatherDisplay:10.37,2013-06-04 16:48:00,
2013-06-04 11:50:00,74.9,34.6,29.26,SSW,194,3.0,0.0,23,0.00,CLR,,0.00,WeatherDisplay:10.37,2013-06-04 16:50:00,
2013-06-04 11:51:00,75.2,33.7,29.26,East,90,5.8,5.8,22,0.00,CLR,,0.00,WeatherDisplay:10.37,2013-06-04 16:51:00,
2013-06-04 11:52:00,75.4,33.9,29.26,SE,135,4.6,4.6,22,0.00,CLR,,0.00,WeatherDisplay:10.37,2013-06-04 16:52:00,
2013-06-04 11:54:00,75.2,32.6,29.26,SSE,158,4.6,4.6,21,0.00,CLR,,0.00,WeatherDisplay:10.37,2013-06-04 16:54:00,
2013-06-04 11:55:00,75.4,33.9,29.26,ENE,68,2.3,2.3,22,0.00,CLR,,0.00,WeatherDisplay:10.37,2013-06-04 16:55:00,
2013-06-04 11:57:00,74.8,33.4,29.26,SE,135,6.0,6.0,22,0.00,CLR,,0.00,WeatherDisplay:10.37,2013-06-04 16:57:00,
2013-06-04 11:58:00,74.5,32.0,29.26,NE,45,5.8,5.8,21,0.00,CLR,,0.00,WeatherDisplay:10.37,2013-06-04 16:58:00,
2013-06-04 11:59:00,73.9,31.5,29.26,NE,45,5.4,5.4,21,0.00,CLR,,0.00,WeatherDisplay:10.37,2013-06-04 16:59:00,
2013-06-04 12:00:00,73.9,31.5,29.26,ENE,68,6.9,6.9,21,0.00,CLR,,0.00,WeatherDisplay:10.37,2013-06-04 17:00:00,
2013-06-04 12:04:00,74.3,33.0,29.26,ESE,112,6.4,6.4,22,0.00,CLR,,0.00,WeatherDisplay:10.37,2013-06-04 17:04:00,
2013-06-04 12:05:00,74.3,33.0,29.26,East,90,3.0,0.0,22,0.00,CLR,,0.00,WeatherDisplay:10.37,2013-06-04 17:05:00,
2013-06-04 12:06:00,74.3,31.8,29.26,South,180,5.8,5.8,21,0.00,CLR,,0.00,WeatherDisplay:10.37,2013-06-04 17:06:00,
2013-06-04 12:10:00,74.2,31.7,29.26,ESE,122,2.0,0.0,21,0.00,CLR,,0.00,WeatherDisplay:10.37,2013-06-04 17:10:00,
2013-06-04 12:11:00,74.7,33.3,29.26,SSE,158,5.8,5.8,22,0.00,CLR,,0.00,WeatherDisplay:10.37,2013-06-04 17:11:00,
2013-06-04 12:13:00,74.1,31.7,29.26,ENE,68,3.6,3.6,21,0.00,CLR,,0.00,WeatherDisplay:10.37,2013-06-04 17:13:00,
2013-06-04 12:15:00,74.5,33.1,29.26,SE,135,5.8,5.8,22,0.00,CLR,,0.00,WeatherDisplay:10.37,2013-06-04 17:15:00,
2013-06-04 12:18:00,74.7,32.1,29.26,West,270,5.8,5.8,21,0.00,CLR,,0.00,WeatherDisplay:10.37,2013-06-04 17:18:00,
2013-06-04 12:19:00,74.7,33.3,29.24,NW,315,3.5,3.5,22,0.00,CLR,,0.00,WeatherDisplay:10.37,2013-06-04 17:19:00,
2013-06-04 12:20:00,74.7,33.3,29.24,East,85,2.0,0.0,22,0.00,CLR,,0.00,WeatherDisplay:10.37,2013-06-04 17:20:00,
2013-06-04 12:23:00,75.0,33.6,29.24,SW,225,4.6,4.6,22,0.00,CLR,,0.00,WeatherDisplay:10.37,2013-06-04 17:23:00,
2013-06-04 12:24:00,75.0,33.6,29.24,SSW,202,4.6,4.6,22,0.00,CLR,,0.00,WeatherDisplay:10.37,2013-06-04 17:24:00,
2013-06-04 12:25:00,75.0,33.6,29.24,WSW,248,5.8,5.8,22,0.00,CLR,,0.00,WeatherDisplay:10.37,2013-06-04 17:25:00,
2013-06-04 12:26:00,75.2,33.7,29.24,SW,225,5.8,5.8,22,0.00,CLR,,0.00,WeatherDisplay:10.37,2013-06-04 17:26:00,
2013-06-04 12:28:00,75.2,33.7,29.24,South,180,2.3,2.3,22,0.00,CLR,,0.00,WeatherDisplay:10.37,2013-06-04 17:28:00,
2013-06-04 12:29:00,75.4,33.9,29.24,SSW,202,3.5,3.5,22,0.00,CLR,,0.00,WeatherDisplay:10.37,2013-06-04 17:29:00,
2013-06-04 12:30:00,75.4,33.9,29.24,NW,315,4.6,4.6,22,0.00,CLR,,0.00,WeatherDisplay:10.37,2013-06-04 17:30:00,
2013-06-04 12:31:00,75.2,33.7,29.24,SE,135,4.6,4.6,22,0.00,CLR,,0.00,WeatherDisplay:10.37,2013-06-04 17:31:00,
2013-06-04 12:33:00,75.2,33.7,29.24,ESE,112,9.2,9.2,22,0.00,CLR,,0.00,WeatherDisplay:10.37,2013-06-04 17:33:00,
2013-06-04 12:34:00,75.2,32.6,29.20,South,180,3.5,4.3,21,0.00,CLR,,0.00,WeatherDisplay:10.37,2013-06-04 17:34:00,
2013-06-04 12:36:00,75.2,32.6,29.20,SSE,158,5.8,5.8,21,0.00,CLR,,0.00,WeatherDisplay:10.37,2013-06-04 17:36:00,
2013-06-04 12:39:00,75.0,33.6,29.20,SE,135,5.8,5.8,22,0.00,CLR,,0.00,WeatherDisplay:10.37,2013-06-04 17:39:00,
2013-06-04 12:40:00,75.1,33.7,29.20,SSE,156,3.0,0.0,22,0.00,CLR,,0.00,WeatherDisplay:10.37,2013-06-04 17:40:00,
2013-06-04 12:42:00,75.2,32.6,29.20,NE,45,4.6,4.6,21,0.00,CLR,,0.00,WeatherDisplay:10.37,2013-06-04 17:42:00,
2013-06-04 12:45:00,75.2,32.6,29.20,SE,143,0.0,0.0,21,0.00,CLR,,0.00,WeatherDisplay:10.37,2013-06-04 17:45:00,
2013-06-04 12:46:00,75.6,32.9,29.20,NE,45,1.1,1.1,21,0.00,CLR,,0.00,WeatherDisplay:10.37,2013-06-04 17:46:00,
2013-06-04 12:49:00,75.9,33.2,29.24,SW,225,8.1,8.1,21,0.00,CLR,,0.00,WeatherDisplay:10.37,2013-06-04 17:49:00,
2013-06-04 12:50:00,76.0,33.2,29.23,South,177,5.0,0.0,21,0.00,CLR,,0.00,WeatherDisplay:10.37,2013-06-04 17:50:00,
2013-06-04 12:51:00,76.5,33.6,29.24,SE,135,8.1,8.1,21,0.00,CLR,,0.00,WeatherDisplay:10.37,2013-06-04 17:51:00,
2013-06-04 12:55:00,76.5,33.6,29.24,SSE,148,3.0,0.0,21,0.00,CLR,,0.00,WeatherDisplay:10.37,2013-06-04 17:55:00,
2013-06-04 12:57:00,76.5,33.6,29.24,ENE,68,8.1,8.1,21,0.00,CLR,,0.00,WeatherDisplay:10.37,2013-06-04 17:57:00,
2013-06-04 12:58:00,75.9,33.2,29.24,East,90,8.1,8.1,21,0.00,CLR,,0.00,WeatherDisplay:10.37,2013-06-04 17:58:00,
2013-06-04 12:59:00,76.1,33.3,29.24,ESE,112,6.9,6.9,21,0.00,CLR,,0.00,WeatherDisplay:10.37,2013-06-04 17:59:00,
2013-06-04 13:00:00,76.1,33.3,29.24,ESE,112,4.6,4.6,21,0.00,CLR,,0.00,WeatherDisplay:10.37,2013-06-04 18:00:00,
2013-06-04 13:02:00,76.5,33.6,29.24,WSW,248,6.9,6.9,21,0.00,CLR,,0.00,WeatherDisplay:10.37,2013-06-04 18:02:00,
2013-06-04 13:03:00,76.6,33.8,29.24,SSW,202,6.9,6.9,21,0.00,CLR,,0.00,WeatherDisplay:10.37,2013-06-04 18:03:00,
2013-06-04 13:05:00,77.0,34.0,29.20,ESE,113,2.0,0.0,21,0.00,CLR,,0.00,WeatherDisplay:10.37,2013-06-04 18:05:00,
2013-06-04 13:06:00,76.6,33.8,29.20,ESE,112,5.4,5.4,21,0.00,CLR,,0.00,WeatherDisplay:10.37,2013-06-04 18:06:00,
2013-06-04 13:07:00,77.0,32.8,29.20,SSW,202,5.8,5.8,20,0.00,CLR,,0.00,WeatherDisplay:10.37,2013-06-04 18:07:00,
2013-06-04 13:08:00,77.2,34.2,29.20,SSE,158,4.6,4.6,21,0.00,CLR,,0.00,WeatherDisplay:10.37,2013-06-04 18:08:00,
2013-06-04 13:12:00,77.7,33.4,29.20,South,180,9.2,9.2,20,0.00,CLR,,0.00,WeatherDisplay:10.37,2013-06-04 18:12:00,
2013-06-04 13:13:00,78.1,33.7,29.20,East,90,6.9,6.9,20,0.00,CLR,,0.00,WeatherDisplay:10.37,2013-06-04 18:13:00,
2013-06-04 13:14:00,77.5,33.3,29.20,NNE,22,4.6,0.0,20,0.00,CLR,,0.00,WeatherDisplay:10.37,2013-06-04 18:14:00,
2013-06-04 13:15:00,77.9,33.6,29.20,ENE,68,3.5,3.5,20,0.00,CLR,,0.00,WeatherDisplay:10.37,2013-06-04 18:15:00,
2013-06-04 13:18:00,77.2,33.0,29.20,ESE,112,8.1,8.1,20,0.00,CLR,,0.00,WeatherDisplay:10.37,2013-06-04 18:18:00,
2013-06-04 13:19:00,76.3,32.2,29.20,SE,135,8.1,8.1,20,0.00,CLR,,0.00,WeatherDisplay:10.37,2013-06-04 18:19:00,
2013-06-04 13:23:00,77.2,33.0,29.20,SE,135,8.1,8.1,20,0.00,CLR,,0.00,WeatherDisplay:10.37,2013-06-04 18:23:00,
2013-06-04 13:24:00,77.2,33.0,29.20,East,90,5.6,5.6,20,0.00,CLR,,0.00,WeatherDisplay:10.37,2013-06-04 18:24:00,
2013-06-04 13:25:00,77.0,34.1,29.20,SE,135,5.8,5.8,21,0.00,CLR,,0.00,WeatherDisplay:10.37,2013-06-04 18:25:00,
2013-06-04 13:27:00,77.2,33.0,29.20,SE,135,10.4,10.4,20,0.00,CLR,,0.00,WeatherDisplay:10.37,2013-06-04 18:27:00,
2013-06-04 13:28:00,77.5,33.3,29.20,SE,135,6.2,6.2,20,0.00,CLR,,0.00,WeatherDisplay:10.37,2013-06-04 18:28:00,
2013-06-04 13:30:00,77.7,33.4,29.20,ESE,112,10.4,10.4,20,0.00,CLR,,0.00,WeatherDisplay:10.37,2013-06-04 18:30:00,
2013-06-04 13:32:00,76.6,29.9,29.20,East,90,6.9,6.9,18,0.00,CLR,,0.00,WeatherDisplay:10.37,2013-06-04 18:32:00,
2013-06-04 13:33:00,76.5,29.8,29.20,ESE,112,7.8,7.8,18,0.00,CLR,,0.00,WeatherDisplay:10.37,2013-06-04 18:33:00,
2013-06-04 13:34:00,76.3,29.6,29.20,ESE,112,8.1,8.1,18,0.00,CLR,,0.00,WeatherDisplay:10.37,2013-06-04 18:34:00,
2013-06-04 13:35:00,76.3,29.6,29.20,SE,135,4.9,4.9,18,0.00,CLR,,0.00,WeatherDisplay:10.37,2013-06-04 18:35:00,
2013-06-04 13:38:00,76.8,32.7,29.20,SE,135,6.9,6.9,20,0.00,CLR,,0.00,WeatherDisplay:10.37,2013-06-04 18:38:00,
2013-06-04 13:39:00,77.0,30.2,29.20,SE,135,5.8,5.8,18,0.00,CLR,,0.00,WeatherDisplay:10.37,2013-06-04 18:39:00,
2013-06-04 13:41:00,76.6,33.8,29.20,SE,135,5.6,5.6,21,0.00,CLR,,0.00,WeatherDisplay:10.37,2013-06-04 18:41:00,
2013-06-04 13:43:00,76.8,32.7,29.20,ESE,112,6.9,6.9,20,0.00,CLR,,0.00,WeatherDisplay:10.37,2013-06-04 18:43:00,
2013-06-04 13:44:00,77.0,32.8,29.20,SE,135,6.9,6.9,20,0.00,CLR,,0.00,WeatherDisplay:10.37,2013-06-04 18:44:00,
2013-06-04 13:46:00,77.2,33.0,29.20,ESE,112,3.5,3.5,20,0.00,CLR,,0.00,WeatherDisplay:10.37,2013-06-04 18:46:00,
2013-06-04 13:48:00,77.5,33.3,29.20,South,180,10.4,10.4,20,0.00,CLR,,0.00,WeatherDisplay:10.37,2013-06-04 18:48:00,
2013-06-04 13:49:00,77.7,33.4,29.20,SSE,158,4.6,4.6,20,0.00,CLR,,0.00,WeatherDisplay:10.37,2013-06-04 18:49:00,
2013-06-04 13:50:00,77.7,33.4,29.20,ESE,112,4.6,4.6,20,0.00,CLR,,0.00,WeatherDisplay:10.37,2013-06-04 18:50:00,
2013-06-04 13:51:00,77.2,33.0,29.20,ESE,112,6.9,6.9,20,0.00,CLR,,0.00,WeatherDisplay:10.37,2013-06-04 18:51:00,
2013-06-04 13:55:00,76.8,32.7,29.20,East,97,6.0,0.0,20,0.00,CLR,,0.00,WeatherDisplay:10.37,2013-06-04 18:55:00,
2013-06-04 13:57:00,75.7,31.8,29.20,NE,45,5.8,5.8,20,0.00,CLR,,0.00,WeatherDisplay:10.37,2013-06-04 18:57:00,
2013-06-04 13:59:00,75.6,32.9,29.20,ESE,112,7.4,7.4,21,0.00,CLR,,0.00,WeatherDisplay:10.37,2013-06-04 18:59:00,
2013-06-04 14:00:00,75.6,31.6,29.20,SW,225,5.8,5.8,20,0.00,CLR,,0.00,WeatherDisplay:10.37,2013-06-04 19:00:00,
2013-06-04 14:02:00,75.9,33.2,29.20,ESE,112,5.8,5.8,21,0.00,CLR,,0.00,WeatherDisplay:10.37,2013-06-04 19:02:00,
2013-06-04 14:03:00,76.1,33.3,29.20,SSE,158,8.1,8.1,21,0.00,CLR,,0.00,WeatherDisplay:10.37,2013-06-04 19:03:00,
2013-06-04 14:05:00,76.3,33.5,29.20,ESE,118,6.0,0.0,21,0.00,CLR,,0.00,WeatherDisplay:10.37,2013-06-04 19:05:00,
2013-06-04 14:06:00,76.1,33.3,29.20,NE,45,4.6,4.6,21,0.00,CLR,,0.00,WeatherDisplay:10.37,2013-06-04 19:06:00,
2013-06-04 14:08:00,75.6,31.6,29.20,East,90,9.2,9.2,20,0.00,CLR,,0.00,WeatherDisplay:10.37,2013-06-04 19:08:00,
2013-06-04 14:09:00,75.4,31.5,29.20,ESE,112,9.2,9.2,20,0.00,CLR,,0.00,WeatherDisplay:10.37,2013-06-04 19:09:00,
2013-06-04 14:10:00,75.4,31.5,29.20,South,180,8.1,8.1,20,0.00,CLR,,0.00,WeatherDisplay:10.37,2013-06-04 19:10:00,
2013-06-04 14:13:00,75.4,32.7,29.20,ESE,112,8.5,8.5,21,0.00,CLR,,0.00,WeatherDisplay:10.37,2013-06-04 19:13:00,
2013-06-04 14:15:00,75.4,32.7,29.20,SE,131,6.0,0.0,21,0.00,CLR,,0.00,WeatherDisplay:10.37,2013-06-04 19:15:00,
2013-06-04 14:17:00,75.4,32.7,29.20,ESE,112,7.4,7.4,21,0.00,CLR,,0.00,WeatherDisplay:10.37,2013-06-04 19:17:00,
2013-06-04 14:19:00,75.2,32.6,29.20,East,90,6.9,6.9,21,0.00,CLR,,0.00,WeatherDisplay:10.37,2013-06-04 19:19:00,
2013-06-04 14:20:00,75.0,32.4,29.15,SE,130,3.0,0.0,21,0.00,CLR,,0.00,WeatherDisplay:10.37,2013-06-04 19:20:00,
2013-06-04 14:24:00,75.0,32.4,29.15,South,180,9.2,9.2,21,0.00,CLR,,0.00,WeatherDisplay:10.37,2013-06-04 19:24:00,
2013-06-04 14:25:00,75.0,32.4,29.15,SE,128,3.0,0.0,21,0.00,CLR,,0.00,WeatherDisplay:10.37,2013-06-04 19:25:00,
2013-06-04 14:26:00,75.0,32.4,29.15,South,180,10.0,10.0,21,0.00,CLR,,0.00,WeatherDisplay:10.37,2013-06-04 19:26:00,
2013-06-04 14:29:00,75.0,32.4,29.15,South,180,9.2,9.2,21,0.00,CLR,,0.00,WeatherDisplay:10.37,2013-06-04 19:29:00,
2013-06-04 14:30:00,75.2,32.6,29.15,SSE,154,7.0,0.0,21,0.00,CLR,,0.00,WeatherDisplay:10.37,2013-06-04 19:30:00,
2013-06-04 14:33:00,75.4,32.7,29.15,East,90,7.1,7.1,21,0.00,CLR,,0.00,WeatherDisplay:10.37,2013-06-04 19:33:00,
2013-06-04 14:34:00,75.4,32.7,29.15,SSE,158,9.2,9.2,21,0.00,CLR,,0.00,WeatherDisplay:10.37,2013-06-04 19:34:00,
2013-06-04 14:37:00,75.4,32.7,29.15,South,180,4.6,4.6,21,0.00,CLR,,0.00,WeatherDisplay:10.37,2013-06-04 19:37:00,
2013-06-04 14:38:00,75.6,32.9,29.15,SE,135,11.8,11.8,21,0.00,CLR,,0.00,WeatherDisplay:10.37,2013-06-04 19:38:00,
2013-06-04 14:39:00,75.7,33.0,29.15,SE,135,11.5,11.5,21,0.00,CLR,,0.00,WeatherDisplay:10.37,2013-06-04 19:39:00,
2013-06-04 14:40:00,75.6,32.9,29.15,ESE,118,6.0,0.0,21,0.00,CLR,,0.00,WeatherDisplay:10.37,2013-06-04 19:40:00,
2013-06-04 14:41:00,75.6,32.9,29.15,SSW,202,6.9,6.9,21,0.00,CLR,,0.00,WeatherDisplay:10.37,2013-06-04 19:41:00,
2013-06-04 14:43:00,75.9,33.2,29.15,SSE,158,11.5,11.5,21,0.00,CLR,,0.00,WeatherDisplay:10.37,2013-06-04 19:43:00,
2013-06-04 14:44:00,75.9,33.2,29.15,ESE,112,10.4,10.4,21,0.00,CLR,,0.00,WeatherDisplay:10.37,2013-06-04 19:44:00,
2013-06-04 14:46:00,75.9,34.3,29.15,South,180,8.1,8.1,22,0.00,CLR,,0.00,WeatherDisplay:10.37,2013-06-04 19:46:00,
2013-06-04 14:48:00,75.9,33.2,29.15,SE,135,11.5,11.5,21,0.00,CLR,,0.00,WeatherDisplay:10.37,2013-06-04 19:48:00,
2013-06-04 14:49:00,75.9,33.2,29.15,East,90,11.5,11.5,21,0.00,CLR,,0.00,WeatherDisplay:10.37,2013-06-04 19:49:00,
2013-06-04 14:50:00,75.9,33.2,29.15,NE,45,11.5,11.5,21,0.00,CLR,,0.00,WeatherDisplay:10.37,2013-06-04 19:50:00,
2013-06-04 14:51:00,75.9,33.2,29.15,SE,135,7.8,7.8,21,0.00,CLR,,0.00,WeatherDisplay:10.37,2013-06-04 19:51:00,
2013-06-04 14:52:00,75.9,33.2,29.15,ENE,68,12.7,12.7,21,0.00,CLR,,0.00,WeatherDisplay:10.37,2013-06-04 19:52:00,
2013-06-04 14:53:00,75.6,32.9,29.15,ESE,112,7.1,7.1,21,0.00,CLR,,0.00,WeatherDisplay:10.37,2013-06-04 19:53:00,
2013-06-04 14:55:00,75.7,33.0,29.15,ESE,112,13.8,13.8,21,0.00,CLR,,0.00,WeatherDisplay:10.37,2013-06-04 19:55:00,
2013-06-04 14:57:00,75.7,33.0,29.15,SE,135,12.7,12.7,21,0.00,CLR,,0.00,WeatherDisplay:10.37,2013-06-04 19:57:00,
2013-06-04 14:59:00,75.9,33.2,29.15,SSE,158,9.7,9.7,21,0.00,CLR,,0.00,WeatherDisplay:10.37,2013-06-04 19:59:00,
2013-06-04 15:00:00,75.9,33.2,29.15,SSW,202,9.2,9.2,21,0.00,CLR,,0.00,WeatherDisplay:10.37,2013-06-04 20:00:00,
2013-06-04 15:02:00,76.1,33.3,29.15,NE,45,5.8,5.8,21,0.00,CLR,,0.00,WeatherDisplay:10.37,2013-06-04 20:02:00,
2013-06-04 15:03:00,76.1,33.3,29.15,South,180,5.8,5.8,21,0.00,CLR,,0.00,WeatherDisplay:10.37,2013-06-04 20:03:00,
2013-06-04 15:05:00,75.9,33.2,29.15,ESE,112,8.1,8.1,21,0.00,CLR,,0.00,WeatherDisplay:10.37,2013-06-04 20:05:00,
2013-06-04 15:06:00,75.9,33.2,29.15,South,180,6.9,6.9,21,0.00,CLR,,0.00,WeatherDisplay:10.37,2013-06-04 20:06:00,
2013-06-04 15:08:00,75.9,34.3,29.15,SSE,158,15.0,15.0,22,0.00,CLR,,0.00,WeatherDisplay:10.37,2013-06-04 20:08:00,
2013-06-04 15:09:00,75.7,33.0,29.15,SSE,158,15.0,15.0,21,0.00,CLR,,0.00,WeatherDisplay:10.37,2013-06-04 20:09:00,
2013-06-04 15:10:00,75.9,33.2,29.15,SE,135,12.7,12.7,21,0.00,CLR,,0.00,WeatherDisplay:10.37,2013-06-04 20:10:00,
2013-06-04 15:13:00,75.7,33.0,29.15,South,180,10.4,10.4,21,0.00,CLR,,0.00,WeatherDisplay:10.37,2013-06-04 20:13:00,
2013-06-04 15:14:00,75.7,33.0,29.15,SSW,202,11.8,11.8,21,0.00,CLR,,0.00,WeatherDisplay:10.37,2013-06-04 20:14:00,
2013-06-04 15:17:00,75.7,33.0,29.15,South,180,9.4,9.4,21,0.00,CLR,,0.00,WeatherDisplay:10.37,2013-06-04 20:17:00,
2013-06-04 15:19:00,75.9,33.2,29.15,SE,135,9.2,9.2,21,0.00,CLR,,0.00,WeatherDisplay:10.37,2013-06-04 20:19:00,
2013-06-04 15:20:00,75.8,33.0,29.15,SSE,150,6.0,0.0,21,0.00,CLR,,0.00,WeatherDisplay:10.37,2013-06-04 20:20:00,
2013-06-04 15:25:00,75.6,32.9,29.15,ESE,112,12.7,12.7,21,0.00,CLR,,0.00,WeatherDisplay:10.37,2013-06-04 20:25:00,
2013-06-04 15:26:00,75.6,32.9,29.15,ESE,112,12.7,12.7,21,0.00,CLR,,0.00,WeatherDisplay:10.37,2013-06-04 20:26:00,
2013-06-04 15:27:00,75.6,32.9,29.15,SE,135,8.5,8.5,21,0.00,CLR,,0.00,WeatherDisplay:10.37,2013-06-04 20:27:00,
2013-06-04 15:30:00,75.4,32.7,29.15,SE,135,8.1,8.1,21,0.00,CLR,,0.00,WeatherDisplay:10.37,2013-06-04 20:30:00,
2013-06-04 15:31:00,75.4,32.7,29.15,SE,135,8.1,8.1,21,0.00,CLR,,0.00,WeatherDisplay:10.37,2013-06-04 20:31:00,
2013-06-04 15:33:00,75.4,32.7,29.15,ESE,112,6.2,6.2,21,0.00,CLR,,0.00,WeatherDisplay:10.37,2013-06-04 20:33:00,
2013-06-04 15:35:00,74.8,32.3,29.12,ESE,112,10.4,10.4,21,0.00,CLR,,0.00,WeatherDisplay:10.37,2013-06-04 20:35:00,
2013-06-04 15:37:00,75.0,33.6,29.12,ESE,112,3.6,3.6,22,0.00,CLR,,0.00,WeatherDisplay:10.37,2013-06-04 20:37:00,
2013-06-04 15:38:00,75.0,33.6,29.12,SSE,158,3.5,3.6,22,0.00,CLR,,0.00,WeatherDisplay:10.37,2013-06-04 20:38:00,
2013-06-04 15:40:00,75.4,32.7,29.12,SSW,202,11.5,11.5,21,0.00,CLR,,0.00,WeatherDisplay:10.37,2013-06-04 20:40:00,
2013-06-04 15:43:00,75.6,32.9,29.12,South,180,14.3,14.3,21,0.00,CLR,,0.00,WeatherDisplay:10.37,2013-06-04 20:43:00,
2013-06-04 15:44:00,75.6,32.9,29.12,South,180,12.7,12.7,21,0.00,CLR,,0.00,WeatherDisplay:10.37,2013-06-04 20:44:00,
2013-06-04 15:47:00,75.6,32.9,29.12,East,90,8.1,8.1,21,0.00,CLR,,0.00,WeatherDisplay:10.37,2013-06-04 20:47:00,
2013-06-04 15:48:00,75.6,32.9,29.12,NE,45,7.4,7.4,21,0.00,CLR,,0.00,WeatherDisplay:10.37,2013-06-04 20:48:00,
2013-06-04 15:49:00,75.6,32.9,29.12,SE,135,5.9,6.0,21,0.00,CLR,,0.00,WeatherDisplay:10.37,2013-06-04 20:49:00,
2013-06-04 15:50:00,75.4,32.7,29.12,SE,137,7.0,0.0,21,0.00,CLR,,0.00,WeatherDisplay:10.37,2013-06-04 20:50:00,
2013-06-04 15:52:00,75.4,32.7,29.12,SSE,158,10.4,10.4,21,0.00,CLR,,0.00,WeatherDisplay:10.37,2013-06-04 20:52:00,
2013-06-04 15:54:00,75.2,32.6,29.12,SSE,158,10.2,10.2,21,0.00,CLR,,0.00,WeatherDisplay:10.37,2013-06-04 20:54:00,
2013-06-04 15:55:00,75.2,32.6,29.12,SE,135,10.4,10.4,21,0.00,CLR,,0.00,WeatherDisplay:10.37,2013-06-04 20:55:00,
2013-06-04 15:57:00,75.0,32.4,29.12,ENE,68,6.9,6.9,21,0.00,CLR,,0.00,WeatherDisplay:10.37,2013-06-04 20:57:00,
2013-06-04 15:59:00,74.8,32.3,29.12,SSW,202,8.1,8.1,21,0.00,CLR,,0.00,WeatherDisplay:10.37,2013-06-04 20:59:00,
2013-06-04 16:00:00,74.8,32.3,29.12,SSE,158,13.0,13.0,21,0.00,CLR,,0.00,WeatherDisplay:10.37,2013-06-04 21:00:00,
2013-06-04 16:02:00,74.8,32.3,29.12,SE,135,11.5,11.5,21,0.00,CLR,,0.00,WeatherDisplay:10.37,2013-06-04 21:02:00,
2013-06-04 16:05:00,75.0,32.4,29.15,SE,142,10.0,0.0,21,0.00,CLR,,0.00,WeatherDisplay:10.37,2013-06-04 21:05:00,
2013-06-04 16:07:00,75.0,32.4,29.15,SE,135,9.2,9.2,21,0.00,CLR,,0.00,WeatherDisplay:10.37,2013-06-04 21:07:00,
2013-06-04 16:08:00,75.0,32.4,29.15,ESE,112,9.2,9.2,21,0.00,CLR,,0.00,WeatherDisplay:10.37,2013-06-04 21:08:00,
2013-06-04 16:09:00,74.8,32.3,29.15,ESE,112,11.5,11.5,21,0.00,CLR,,0.00,WeatherDisplay:10.37,2013-06-04 21:09:00,
2013-06-04 16:10:00,74.8,32.3,29.15,South,180,10.4,10.4,21,0.00,CLR,,0.00,WeatherDisplay:10.37,2013-06-04 21:10:00,
2013-06-04 16:13:00,74.7,32.1,29.15,SE,135,8.1,8.1,21,0.00,CLR,,0.00,WeatherDisplay:10.37,2013-06-04 21:13:00,
2013-06-04 16:14:00,74.7,32.1,29.15,East,90,8.1,8.1,21,0.00,CLR,,0.00,WeatherDisplay:10.37,2013-06-04 21:14:00,
2013-06-04 16:15:00,74.7,32.1,29.15,SSE,158,4.6,4.6,21,0.00,CLR,,0.00,WeatherDisplay:10.37,2013-06-04 21:15:00,
2013-06-04 16:18:00,74.8,32.3,29.15,WSW,248,17.3,17.3,21,0.00,CLR,,0.00,WeatherDisplay:10.37,2013-06-04 21:18:00,
2013-06-04 16:20:00,74.8,32.3,29.15,SE,127,7.0,0.0,21,0.00,CLR,,0.00,WeatherDisplay:10.37,2013-06-04 21:20:00,
2013-06-04 16:21:00,74.7,32.1,29.15,East,90,12.5,12.5,21,0.00,CLR,,0.00,WeatherDisplay:10.37,2013-06-04 21:21:00,
2013-06-04 16:22:00,74.7,32.1,29.15,ESE,112,12.7,12.7,21,0.00,CLR,,0.00,WeatherDisplay:10.37,2013-06-04 21:22:00,
2013-06-04 16:24:00,74.7,32.1,29.15,East,90,7.1,7.1,21,0.00,CLR,,0.00,WeatherDisplay:10.37,2013-06-04 21:24:00,
2013-06-04 16:25:00,74.7,32.1,29.15,ESE,121,5.0,0.0,21,0.00,CLR,,0.00,WeatherDisplay:10.37,2013-06-04 21:25:00,
2013-06-04 16:26:00,74.7,32.1,29.15,East,90,13.8,13.8,21,0.00,CLR,,0.00,WeatherDisplay:10.37,2013-06-04 21:26:00,
2013-06-04 16:28:00,74.7,32.1,29.15,South,180,13.8,13.8,21,0.00,CLR,,0.00,WeatherDisplay:10.37,2013-06-04 21:28:00,
2013-06-04 16:29:00,74.8,32.3,29.15,SE,135,11.5,11.5,21,0.00,CLR,,0.00,WeatherDisplay:10.37,2013-06-04 21:29:00,
2013-06-04 16:30:00,75.0,32.4,29.15,East,90,11.5,11.5,21,0.00,CLR,,0.00,WeatherDisplay:10.37,2013-06-04 21:30:00,
2013-06-04 16:31:00,75.0,32.4,29.15,SE,135,12.7,12.7,21,0.00,CLR,,0.00,WeatherDisplay:10.37,2013-06-04 21:31:00,
2013-06-04 16:34:00,75.2,32.6,29.15,ESE,112,12.7,12.7,21,0.00,CLR,,0.00,WeatherDisplay:10.37,2013-06-04 21:34:00,
2013-06-04 16:35:00,75.2,31.3,29.15,SE,135,9.2,9.2,20,0.00,CLR,,0.00,WeatherDisplay:10.37,2013-06-04 21:35:00,
2013-06-04 16:38:00,75.6,32.9,29.15,SSW,202,9.2,9.2,21,0.00,CLR,,0.00,WeatherDisplay:10.37,2013-06-04 21:38:00,
2013-06-04 16:39:00,75.6,32.9,29.15,SE,135,12.1,12.1,21,0.00,CLR,,0.00,WeatherDisplay:10.37,2013-06-04 21:39:00,
2013-06-04 16:40:00,75.4,31.5,29.15,SSW,202,12.7,12.7,20,0.00,CLR,,0.00,WeatherDisplay:10.37,2013-06-04 21:40:00,
2013-06-04 16:41:00,75.2,31.3,29.15,SE,135,6.9,6.9,20,0.00,CLR,,0.00,WeatherDisplay:10.37,2013-06-04 21:41:00,
2013-06-04 16:44:00,75.0,32.4,29.15,SE,135,4.6,4.6,21,0.00,CLR,,0.00,WeatherDisplay:10.37,2013-06-04 21:44:00,
2013-06-04 16:46:00,75.4,31.5,29.15,SE,135,11.5,11.5,20,0.00,CLR,,0.00,WeatherDisplay:10.37,2013-06-04 21:46:00,
2013-06-04 16:47:00,75.4,31.5,29.15,SSE,158,11.5,11.5,20,0.00,CLR,,0.00,WeatherDisplay:10.37,2013-06-04 21:47:00,
2013-06-04 16:48:00,75.4,31.5,29.15,South,180,11.5,11.5,20,0.00,CLR,,0.00,WeatherDisplay:10.37,2013-06-04 21:48:00,
2013-06-04 16:49:00,75.2,31.3,29.15,SSE,158,8.1,8.1,20,0.00,CLR,,0.00,WeatherDisplay:10.37,2013-06-04 21:49:00,
2013-06-04 16:52:00,75.4,31.5,29.15,SE,135,9.2,9.2,20,0.00,CLR,,0.00,WeatherDisplay:10.37,2013-06-04 21:52:00,
2013-06-04 16:53:00,75.4,31.5,29.15,South,180,8.1,8.1,20,0.00,CLR,,0.00,WeatherDisplay:10.37,2013-06-04 21:53:00,
2013-06-04 16:55:00,75.7,33.0,29.15,ESE,112,8.1,8.1,21,0.00,CLR,,0.00,WeatherDisplay:10.37,2013-06-04 21:55:00,
2013-06-04 16:58:00,75.7,31.8,29.15,SSW,202,3.5,3.5,20,0.00,CLR,,0.00,WeatherDisplay:10.37,2013-06-04 21:58:00,
2013-06-04 16:59:00,75.7,31.8,29.15,SSE,158,7.6,7.6,20,0.00,CLR,,0.00,WeatherDisplay:10.37,2013-06-04 21:59:00,
2013-06-04 17:00:00,75.9,33.2,29.15,SSW,202,8.1,8.1,21,0.00,CLR,,0.00,WeatherDisplay:10.37,2013-06-04 22:00:00,
2013-06-04 17:02:00,75.9,31.9,29.15,ESE,112,12.7,12.7,20,0.00,CLR,,0.00,WeatherDisplay:10.37,2013-06-04 22:02:00,
2013-06-04 17:03:00,75.7,31.8,29.15,SSE,158,6.9,6.9,20,0.00,CLR,,0.00,WeatherDisplay:10.37,2013-06-04 22:03:00,
2013-06-04 17:06:00,75.7,33.0,29.15,SW,225,8.1,8.1,21,0.00,CLR,,0.00,WeatherDisplay:10.37,2013-06-04 22:06:00,
2013-06-04 17:07:00,75.6,32.9,29.15,ESE,112,10.7,10.7,21,0.00,CLR,,0.00,WeatherDisplay:10.37,2013-06-04 22:07:00,
2013-06-04 17:09:00,75.4,32.7,29.15,SE,135,5.8,5.8,21,0.00,CLR,,0.00,WeatherDisplay:10.37,2013-06-04 22:09:00,
2013-06-04 17:10:00,75.4,32.7,29.15,SSE,158,5.8,5.8,21,0.00,CLR,,0.00,WeatherDisplay:10.37,2013-06-04 22:10:00,
2013-06-04 17:15:00,75.6,32.9,29.15,SSE,158,8.1,8.1,21,0.00,CLR,,0.00,WeatherDisplay:10.37,2013-06-04 22:15:00,
2013-06-04 17:16:00,75.4,32.7,29.15,NNE,22,4.6,4.6,21,0.00,CLR,,0.00,WeatherDisplay:10.37,2013-06-04 22:16:00,
2013-06-04 17:18:00,75.0,32.4,29.15,East,90,5.8,5.8,21,0.00,CLR,,0.00,WeatherDisplay:10.37,2013-06-04 22:18:00,
2013-06-04 17:20:00,75.2,32.6,29.15,ESE,104,3.0,0.0,21,0.00,CLR,,0.00,WeatherDisplay:10.37,2013-06-04 22:20:00,
2013-06-04 17:21:00,75.4,32.7,29.15,SSE,158,12.7,12.7,21,0.00,CLR,,0.00,WeatherDisplay:10.37,2013-06-04 22:21:00,
2013-06-04 17:23:00,75.4,32.7,29.15,SSW,202,9.2,9.2,21,0.00,CLR,,0.00,WeatherDisplay:10.37,2013-06-04 22:23:00,
2013-06-04 17:24:00,75.4,32.7,29.15,SSE,158,9.2,9.2,21,0.00,CLR,,0.00,WeatherDisplay:10.37,2013-06-04 22:24:00,
2013-06-04 17:28:00,74.8,32.3,29.15,SSE,158,4.6,4.6,21,0.00,CLR,,0.00,WeatherDisplay:10.37,2013-06-04 22:28:00,
2013-06-04 17:29:00,74.7,32.1,29.15,ESE,112,6.9,6.9,21,0.00,CLR,,0.00,WeatherDisplay:10.37,2013-06-04 22:29:00,
2013-06-04 17:30:00,74.7,32.1,29.15,ESE,112,6.9,6.9,21,0.00,CLR,,0.00,WeatherDisplay:10.37,2013-06-04 22:30:00,
2013-06-04 17:31:00,74.7,32.1,29.15,SSE,158,5.8,5.8,21,0.00,CLR,,0.00,WeatherDisplay:10.37,2013-06-04 22:31:00,
2013-06-04 17:33:00,74.5,32.0,29.15,SE,135,4.6,4.6,21,0.00,CLR,,0.00,WeatherDisplay:10.37,2013-06-04 22:33:00,
2013-06-04 17:34:00,74.3,31.8,29.12,WNW,292,4.9,4.9,21,0.00,CLR,,0.00,WeatherDisplay:10.37,2013-06-04 22:34:00,
2013-06-04 17:35:00,74.3,31.8,29.12,ESE,112,4.6,4.6,21,0.00,CLR,,0.00,WeatherDisplay:10.37,2013-06-04 22:35:00,
2013-06-04 17:37:00,74.1,31.7,29.12,NE,45,5.8,5.8,21,0.00,CLR,,0.00,WeatherDisplay:10.37,2013-06-04 22:37:00,
2013-06-04 17:38:00,73.8,31.4,29.12,SE,135,3.5,3.5,21,0.00,CLR,,0.00,WeatherDisplay:10.37,2013-06-04 22:38:00,
2013-06-04 17:40:00,73.8,31.4,29.12,ESE,115,2.0,0.0,21,0.00,CLR,,0.00,WeatherDisplay:10.37,2013-06-04 22:40:00,
2013-06-04 17:41:00,73.8,31.4,29.12,ESE,112,3.5,3.5,21,0.00,CLR,,0.00,WeatherDisplay:10.37,2013-06-04 22:41:00,
2013-06-04 17:43:00,73.8,32.5,29.12,ESE,112,4.6,4.6,22,0.00,CLR,,0.00,WeatherDisplay:10.37,2013-06-04 22:43:00,
2013-06-04 17:44:00,73.8,31.4,29.12,SE,135,4.7,4.7,21,0.00,CLR,,0.00,WeatherDisplay:10.37,2013-06-04 22:44:00,
2013-06-04 17:45:00,73.8,31.4,29.12,ESE,112,4.6,4.6,21,0.00,CLR,,0.00,WeatherDisplay:10.37,2013-06-04 22:45:00,
2013-06-04 17:46:00,73.8,32.5,29.12,NNE,22,4.6,4.6,22,0.00,CLR,,0.00,WeatherDisplay:10.37,2013-06-04 22:46:00,
2013-06-04 17:47:00,73.8,32.5,29.12,SSE,158,4.0,4.0,22,0.00,CLR,,0.00,WeatherDisplay:10.37,2013-06-04 22:47:00,
2013-06-04 17:49:00,73.9,32.7,29.12,ESE,112,5.8,5.8,22,0.00,CLR,,0.00,WeatherDisplay:10.37,2013-06-04 22:49:00,
2013-06-04 17:51:00,74.1,32.8,29.15,SE,135,5.8,5.8,22,0.00,CLR,,0.00,WeatherDisplay:10.37,2013-06-04 22:51:00,
2013-06-04 17:52:00,74.1,32.8,29.15,SE,135,8.1,8.1,22,0.00,CLR,,0.00,WeatherDisplay:10.37,2013-06-04 22:52:00,
2013-06-04 17:54:00,74.1,32.8,29.15,ESE,112,8.1,8.1,22,0.00,CLR,,0.00,WeatherDisplay:10.37,2013-06-04 22:54:00,
2013-06-04 17:57:00,73.9,32.7,29.15,SSE,158,5.8,5.8,22,0.00,CLR,,0.00,WeatherDisplay:10.37,2013-06-04 22:57:00,
2013-06-04 17:59:00,73.9,32.7,29.15,ESE,112,6.9,6.9,22,0.00,CLR,,0.00,WeatherDisplay:10.37,2013-06-04 22:59:00,
2013-06-04 18:00:00,73.9,32.7,29.15,SSE,158,6.9,6.9,22,0.00,CLR,,0.00,WeatherDisplay:10.37,2013-06-04 23:00:00,
2013-06-04 18:02:00,73.8,32.5,29.15,SSE,158,4.6,4.6,22,0.00,CLR,,0.00,WeatherDisplay:10.37,2013-06-04 23:02:00,
2013-06-04 18:03:00,73.8,32.5,29.15,SE,135,3.5,3.5,22,0.00,CLR,,0.00,WeatherDisplay:10.37,2013-06-04 23:03:00,
2013-06-04 18:05:00,73.8,32.5,29.18,SSE,158,4.3,4.3,22,0.00,CLR,,0.00,WeatherDisplay:10.37,2013-06-04 23:05:00,
2013-06-04 18:07:00,73.8,32.5,29.18,ESE,112,6.4,6.4,22,0.00,CLR,,0.00,WeatherDisplay:10.37,2013-06-04 23:07:00,
2013-06-04 18:08:00,73.8,32.5,29.18,SSE,158,6.9,6.9,22,0.00,CLR,,0.00,WeatherDisplay:10.37,2013-06-04 23:08:00,
2013-06-04 18:09:00,73.8,32.5,29.18,SSE,158,6.9,6.9,22,0.00,CLR,,0.00,WeatherDisplay:10.37,2013-06-04 23:09:00,
2013-06-04 18:12:00,73.9,32.7,29.18,South,180,4.6,4.6,22,0.00,CLR,,0.00,WeatherDisplay:10.37,2013-06-04 23:12:00,
2013-06-04 18:13:00,73.9,32.7,29.18,South,180,4.6,4.6,22,0.00,CLR,,0.00,WeatherDisplay:10.37,2013-06-04 23:13:00,
2013-06-04 18:14:00,73.9,33.8,29.18,ESE,112,8.1,8.1,23,0.00,CLR,,0.00,WeatherDisplay:10.37,2013-06-04 23:14:00,
2013-06-04 18:17:00,73.8,32.5,29.18,SE,135,6.4,6.4,22,0.00,CLR,,0.00,WeatherDisplay:10.37,2013-06-04 23:17:00,
2013-06-04 18:18:00,73.8,32.5,29.18,SSE,158,6.2,6.2,22,0.00,CLR,,0.00,WeatherDisplay:10.37,2013-06-04 23:18:00,
2013-06-04 18:20:00,73.8,32.5,29.15,SE,128,3.0,0.0,22,0.00,CLR,,0.00,WeatherDisplay:10.37,2013-06-04 23:20:00,
2013-06-04 18:23:00,73.6,32.4,29.15,SE,135,5.8,5.8,22,0.00,CLR,,0.00,WeatherDisplay:10.37,2013-06-04 23:23:00,
2013-06-04 18:25:00,73.4,32.2,29.15,SE,135,3.5,3.5,22,0.00,CLR,,0.00,WeatherDisplay:10.37,2013-06-04 23:25:00,
2013-06-04 18:26:00,73.4,32.2,29.15,SSE,158,4.9,4.9,22,0.00,CLR,,0.00,WeatherDisplay:10.37,2013-06-04 23:26:00,
2013-06-04 18:28:00,73.2,33.2,29.15,SE,135,3.6,3.6,23,0.00,CLR,,0.00,WeatherDisplay:10.37,2013-06-04 23:28:00,
2013-06-04 18:29:00,73.2,33.2,29.15,NNE,22,3.5,3.5,23,0.00,CLR,,0.00,WeatherDisplay:10.37,2013-06-04 23:29:00,
2013-06-04 18:31:00,73.2,33.2,29.15,ESE,112,3.3,3.3,23,0.00,CLR,,0.00,WeatherDisplay:10.37,2013-06-04 23:31:00,
2013-06-04 18:34:00,73.2,33.2,29.15,ESE,112,3.5,3.5,23,0.00,CLR,,0.00,WeatherDisplay:10.37,2013-06-04 23:34:00,
2013-06-04 18:36:00,73.2,33.2,29.15,SE,135,4.6,4.6,23,0.00,CLR,,0.00,WeatherDisplay:10.37,2013-06-04 23:36:00,
2013-06-04 18:38:00,73.2,33.2,29.15,ESE,112,5.9,5.9,23,0.00,CLR,,0.00,WeatherDisplay:10.37,2013-06-04 23:38:00,
2013-06-04 18:41:00,73.0,34.1,29.15,SSE,158,3.5,3.5,24,0.00,CLR,,0.00,WeatherDisplay:10.37,2013-06-04 23:41:00,
2013-06-04 18:42:00,73.0,34.1,29.15,East,90,4.6,4.6,24,0.00,CLR,,0.00,WeatherDisplay:10.37,2013-06-04 23:42:00,
2013-06-04 18:43:00,73.0,34.1,29.15,SSE,158,5.8,5.8,24,0.00,CLR,,0.00,WeatherDisplay:10.37,2013-06-04 23:43:00,
2013-06-04 18:44:00,73.0,34.1,29.15,East,90,5.8,5.8,24,0.00,CLR,,0.00,WeatherDisplay:10.37,2013-06-04 23:44:00,
2013-06-04 18:47:00,73.0,34.1,29.15,SSE,158,3.5,3.5,24,0.00,CLR,,0.00,WeatherDisplay:10.37,2013-06-04 23:47:00,
2013-06-04 18:49:00,73.0,34.1,29.15,NE,45,6.9,6.9,24,0.00,CLR,,0.00,WeatherDisplay:10.37,2013-06-04 23:49:00,
2013-06-04 18:52:00,72.9,33.9,29.15,ESE,112,8.1,8.1,24,0.00,CLR,,0.00,WeatherDisplay:10.37,2013-06-04 23:52:00,
2013-06-04 18:54:00,72.9,33.9,29.15,South,180,8.1,8.1,24,0.00,CLR,,0.00,WeatherDisplay:10.37,2013-06-04 23:54:00,
2013-06-04 18:55:00,72.7,33.8,29.15,ESE,112,4.6,4.6,24,0.00,CLR,,0.00,WeatherDisplay:10.37,2013-06-04 23:55:00,
2013-06-04 18:57:00,72.7,33.8,29.15,ESE,112,5.9,5.9,24,0.00,CLR,,0.00,WeatherDisplay:10.37,2013-06-04 23:57:00,
2013-06-04 19:00:00,72.5,33.6,29.15,ESE,112,3.5,3.5,24,0.00,CLR,,0.00,WeatherDisplay:10.37,2013-06-05 00:00:00,
2013-06-04 19:02:00,72.5,33.6,29.15,SE,135,3.5,3.5,24,0.00,CLR,,0.00,WeatherDisplay:10.37,2013-06-05 00:02:00,
2013-06-04 19:03:00,72.3,34.5,29.15,NE,45,3.5,3.5,25,0.00,CLR,,0.00,WeatherDisplay:10.37,2013-06-05 00:03:00,
2013-06-04 19:05:00,72.3,34.5,29.15,ESE,122,2.0,0.0,25,0.00,CLR,,0.00,WeatherDisplay:10.37,2013-06-05 00:05:00,
2013-06-04 19:06:00,72.1,34.4,29.15,SE,135,8.1,8.1,25,0.00,CLR,,0.00,WeatherDisplay:10.37,2013-06-05 00:06:00,
2013-06-04 19:09:00,72.0,34.2,29.15,SSE,158,8.1,8.1,25,0.00,CLR,,0.00,WeatherDisplay:10.37,2013-06-05 00:09:00,
2013-06-04 19:10:00,72.0,34.2,29.15,SE,135,3.5,3.5,25,0.00,CLR,,0.00,WeatherDisplay:10.37,2013-06-05 00:10:00,
2013-06-04 19:11:00,71.8,34.0,29.15,East,90,5.8,5.8,25,0.00,CLR,,0.00,WeatherDisplay:10.37,2013-06-05 00:11:00,
2013-06-04 19:15:00,71.6,33.9,29.15,ESE,112,3.5,3.5,25,0.00,CLR,,0.00,WeatherDisplay:10.37,2013-06-05 00:15:00,
2013-06-04 19:17:00,71.6,33.9,29.15,ESE,112,3.5,3.5,25,0.00,CLR,,0.00,WeatherDisplay:10.37,2013-06-05 00:17:00,
2013-06-04 19:18:00,71.6,34.9,29.15,SE,135,4.6,4.6,26,0.00,CLR,,0.00,WeatherDisplay:10.37,2013-06-05 00:18:00,
2013-06-04 19:22:00,71.4,35.7,29.15,ESE,112,8.1,8.1,27,0.00,CLR,,0.00,WeatherDisplay:10.37,2013-06-05 00:22:00,
2013-06-04 19:24:00,71.2,35.5,29.15,SE,135,8.1,8.1,27,0.00,CLR,,0.00,WeatherDisplay:10.37,2013-06-05 00:24:00,
2013-06-04 19:25:00,71.2,35.5,29.15,East,90,8.1,8.1,27,0.00,CLR,,0.00,WeatherDisplay:10.37,2013-06-05 00:25:00,
2013-06-04 19:26:00,71.2,35.5,29.15,SSE,158,3.5,3.5,27,0.00,CLR,,0.00,WeatherDisplay:10.37,2013-06-05 00:26:00,
2013-06-04 19:27:00,71.2,35.5,29.15,SSE,158,5.8,5.8,27,0.00,CLR,,0.00,WeatherDisplay:10.37,2013-06-05 00:27:00,
2013-06-04 19:29:00,71.1,35.4,29.15,NE,45,4.6,4.6,27,0.00,CLR,,0.00,WeatherDisplay:10.37,2013-06-05 00:29:00,
2013-06-04 19:30:00,71.1,35.4,29.15,ESE,108,2.0,0.0,27,0.00,CLR,,0.00,WeatherDisplay:10.37,2013-06-05 00:30:00,
2013-06-04 19:31:00,71.1,36.3,29.15,ESE,112,2.9,2.9,28,0.00,CLR,,0.00,WeatherDisplay:10.37,2013-06-05 00:31:00,
2013-06-04 19:34:00,70.9,36.1,29.15,East,90,5.8,5.8,28,0.00,CLR,,0.00,WeatherDisplay:10.37,2013-06-05 00:34:00,
2013-06-04 19:35:00,70.9,37.0,29.12,NE,45,2.3,2.3,29,0.00,CLR,,0.00,WeatherDisplay:10.37,2013-06-05 00:35:00,
2013-06-04 19:37:00,70.9,37.0,29.12,NNE,22,4.6,4.6,29,0.00,CLR,,0.00,WeatherDisplay:10.37,2013-06-05 00:37:00,
2013-06-04 19:39:00,70.9,36.1,29.12,SE,135,4.6,4.6,28,0.00,CLR,,0.00,WeatherDisplay:10.37,2013-06-05 00:39:00,
2013-06-04 19:40:00,70.9,37.0,29.12,ESE,112,4.6,4.6,29,0.00,CLR,,0.00,WeatherDisplay:10.37,2013-06-05 00:40:00,
2013-06-04 19:43:00,70.7,37.7,29.12,SSE,158,6.9,6.9,30,0.00,CLR,,0.00,WeatherDisplay:10.37,2013-06-05 00:43:00,
2013-06-04 19:44:00,70.5,36.7,29.12,East,90,5.8,5.8,29,0.00,CLR,,0.00,WeatherDisplay:10.37,2013-06-05 00:44:00,
2013-06-04 19:45:00,70.5,36.7,29.12,ESE,112,5.8,5.8,29,0.00,CLR,,0.00,WeatherDisplay:10.37,2013-06-05 00:45:00,
2013-06-04 19:50:00,70.3,37.4,29.12,SSE,158,3.5,4.0,30,0.00,CLR,,0.00,WeatherDisplay:10.37,2013-06-05 00:50:00,
2013-06-04 19:51:00,70.3,37.4,29.12,East,90,6.9,6.9,30,0.00,CLR,,0.00,WeatherDisplay:10.37,2013-06-05 00:51:00,
2013-06-04 19:55:00,70.2,38.1,29.12,SE,129,3.0,0.0,31,0.00,CLR,,0.00,WeatherDisplay:10.37,2013-06-05 00:55:00,
2013-06-04 19:56:00,70.0,38.8,29.12,ESE,112,6.9,6.9,32,0.00,CLR,,0.00,WeatherDisplay:10.37,2013-06-05 00:56:00,
2013-06-04 19:59:00,70.0,37.9,29.12,ESE,112,6.0,6.0,31,0.00,CLR,,0.00,WeatherDisplay:10.37,2013-06-05 00:59:00,
2013-06-04 20:00:00,70.0,38.8,29.12,SE,127,3.0,0.0,32,0.00,CLR,,0.00,WeatherDisplay:10.37,2013-06-05 01:00:00,
2013-06-04 20:02:00,69.8,38.6,29.12,East,90,7.4,7.4,32,0.00,CLR,,0.00,WeatherDisplay:10.37,2013-06-05 01:02:00,
2013-06-04 20:03:00,69.8,38.6,29.12,ESE,112,5.8,5.8,32,0.00,CLR,,0.00,WeatherDisplay:10.37,2013-06-05 01:03:00,
2013-06-04 20:07:00,69.6,38.4,29.12,SE,135,5.8,5.8,32,0.00,CLR,,0.00,WeatherDisplay:10.37,2013-06-05 01:07:00,
2013-06-04 20:08:00,69.6,38.4,29.12,ESE,112,5.6,5.6,32,0.00,CLR,,0.00,WeatherDisplay:10.37,2013-06-05 01:08:00,
2013-06-04 20:09:00,69.6,38.4,29.12,East,90,5.8,5.8,32,0.00,CLR,,0.00,WeatherDisplay:10.37,2013-06-05 01:09:00,
2013-06-04 20:10:00,69.6,38.4,29.12,SSE,158,2.3,2.3,32,0.00,CLR,,0.00,WeatherDisplay:10.37,2013-06-05 01:10:00,
2013-06-04 20:12:00,69.4,38.3,29.12,East,90,5.8,5.8,32,0.00,CLR,,0.00,WeatherDisplay:10.37,2013-06-05 01:12:00,
2013-06-04 20:13:00,69.4,38.3,29.12,East,90,5.8,5.8,32,0.00,CLR,,0.00,WeatherDisplay:10.37,2013-06-05 01:13:00,
2013-06-04 20:17:00,69.3,38.1,29.12,NE,45,5.8,5.8,32,0.00,CLR,,0.00,WeatherDisplay:10.37,2013-06-05 01:17:00,
2013-06-04 20:18:00,69.3,38.1,29.12,SE,135,5.8,5.8,32,0.00,CLR,,0.00,WeatherDisplay:10.37,2013-06-05 01:18:00,
2013-06-04 20:19:00,69.1,38.0,29.15,ESE,112,2.6,2.6,32,0.00,CLR,,0.00,WeatherDisplay:10.37,2013-06-05 01:19:00,
2013-06-04 20:21:00,69.1,38.8,29.15,South,180,2.3,2.3,33,0.00,CLR,,0.00,WeatherDisplay:10.37,2013-06-05 01:21:00,
2013-06-04 20:22:00,68.9,37.8,29.15,ESE,112,2.3,2.3,32,0.00,CLR,,0.00,WeatherDisplay:10.37,2013-06-05 01:22:00,
2013-06-04 20:23:00,68.9,38.6,29.15,South,180,3.5,3.5,33,0.00,CLR,,0.00,WeatherDisplay:10.37,2013-06-05 01:23:00,
2013-06-04 20:24:00,68.9,38.6,29.15,ENE,68,3.5,3.5,33,0.00,CLR,,0.00,WeatherDisplay:10.37,2013-06-05 01:24:00,
2013-06-04 20:25:00,68.9,38.6,29.15,ESE,107,2.0,0.0,33,0.00,CLR,,0.00,WeatherDisplay:10.37,2013-06-05 01:25:00,
2013-06-04 20:27:00,68.7,37.7,29.15,ESE,112,2.3,2.3,32,0.00,CLR,,0.00,WeatherDisplay:10.37,2013-06-05 01:27:00,
2013-06-04 20:28:00,68.7,37.7,29.15,East,90,2.3,2.3,32,0.00,CLR,,0.00,WeatherDisplay:10.37,2013-06-05 01:28:00,
2013-06-04 20:29:00,68.7,38.4,29.15,South,180,2.3,2.3,33,0.00,CLR,,0.00,WeatherDisplay:10.37,2013-06-05 01:29:00,
2013-06-04 20:30:00,68.7,37.7,29.15,SSE,158,2.3,2.4,32,0.00,CLR,,0.00,WeatherDisplay:10.37,2013-06-05 01:30:00,
2013-06-04 20:34:00,68.5,38.3,29.15,ESE,112,2.3,2.3,33,0.00,CLR,,0.00,WeatherDisplay:10.37,2013-06-05 01:34:00,
2013-06-04 20:35:00,68.4,38.1,29.15,ESE,112,2.4,2.4,33,0.00,CLR,,0.00,WeatherDisplay:10.37,2013-06-05 01:35:00,
2013-06-04 20:37:00,68.4,38.1,29.15,ENE,68,3.5,3.5,33,0.00,CLR,,0.00,WeatherDisplay:10.37,2013-06-05 01:37:00,
2013-06-04 20:40:00,68.2,38.0,29.15,East,101,2.0,0.0,33,0.00,CLR,,0.00,WeatherDisplay:10.37,2013-06-05 01:40:00,
2013-06-04 20:42:00,68.0,37.8,29.15,SE,135,2.3,2.3,33,0.00,CLR,,0.00,WeatherDisplay:10.37,2013-06-05 01:42:00,
2013-06-04 20:44:00,68.0,37.8,29.15,SSE,158,1.1,1.1,33,0.00,CLR,,0.00,WeatherDisplay:10.37,2013-06-05 01:44:00,
2013-06-04 20:45:00,68.0,37.8,29.15,SW,225,2.3,2.3,33,0.00,CLR,,0.00,WeatherDisplay:10.37,2013-06-05 01:45:00,
2013-06-04 20:46:00,67.8,38.4,29.15,SE,135,4.6,4.6,34,0.00,CLR,,0.00,WeatherDisplay:10.37,2013-06-05 01:46:00,
2013-06-04 20:50:00,67.8,38.4,29.15,ESE,112,2.3,2.3,34,0.00,CLR,,0.00,WeatherDisplay:10.37,2013-06-05 01:50:00,
2013-06-04 20:51:00,67.8,38.4,29.15,SE,135,2.3,2.3,34,0.00,CLR,,0.00,WeatherDisplay:10.37,2013-06-05 01:51:00,
2013-06-04 20:53:00,67.6,38.3,29.15,ESE,112,1.1,0.0,34,0.00,CLR,,0.00,WeatherDisplay:10.37,2013-06-05 01:53:00,
2013-06-04 20:56:00,67.6,38.3,29.15,SSE,158,2.3,0.0,34,0.00,CLR,,0.00,WeatherDisplay:10.37,2013-06-05 01:56:00,
2013-06-04 20:57:00,67.6,38.3,29.15,SE,135,2.3,0.0,34,0.00,CLR,,0.00,WeatherDisplay:10.37,2013-06-05 01:57:00,
2013-06-04 20:59:00,67.6,38.3,29.15,South,180,2.3,2.3,34,0.00,CLR,,0.00,WeatherDisplay:10.37,2013-06-05 01:59:00,
2013-06-04 21:00:00,67.6,38.3,29.15,NW,315,1.1,0.0,34,0.00,CLR,,0.00,WeatherDisplay:10.37,2013-06-05 02:00:00,
2013-06-04 21:01:00,67.5,38.1,29.15,NNE,22,0.0,0.0,34,0.00,CLR,,0.00,WeatherDisplay:10.37,2013-06-05 02:01:00,
2013-06-04 21:02:00,67.5,38.1,29.15,ENE,68,1.1,0.0,34,0.00,CLR,,0.00,WeatherDisplay:10.37,2013-06-05 02:02:00,
2013-06-04 21:05:00,67.5,39.6,29.15,ESE,109,1.0,0.0,36,0.00,CLR,,0.00,WeatherDisplay:10.37,2013-06-05 02:05:00,
2013-06-04 21:06:00,67.3,38.7,29.15,East,90,2.3,2.3,35,0.00,CLR,,0.00,WeatherDisplay:10.37,2013-06-05 02:06:00,
2013-06-04 21:07:00,67.3,38.7,29.15,East,90,2.3,2.3,35,0.00,CLR,,0.00,WeatherDisplay:10.37,2013-06-05 02:07:00,
2013-06-04 21:08:00,67.3,38.7,29.15,SE,135,2.3,2.3,35,0.00,CLR,,0.00,WeatherDisplay:10.37,2013-06-05 02:08:00,
2013-06-04 21:11:00,67.3,38.7,29.15,SE,135,3.5,3.5,35,0.00,CLR,,0.00,WeatherDisplay:10.37,2013-06-05 02:11:00,
2013-06-04 21:13:00,67.1,38.5,29.15,East,90,3.8,3.8,35,0.00,CLR,,0.00,WeatherDisplay:10.37,2013-06-05 02:13:00,
2013-06-04 21:15:00,67.1,38.5,29.15,SE,134,2.0,0.0,35,0.00,CLR,,0.00,WeatherDisplay:10.37,2013-06-05 02:15:00,
2013-06-04 21:16:00,67.1,38.5,29.15,SSE,158,2.3,2.3,35,0.00,CLR,,0.00,WeatherDisplay:10.37,2013-06-05 02:16:00,
2013-06-04 21:17:00,67.1,39.2,29.15,SSE,158,2.3,2.3,36,0.00,CLR,,0.00,WeatherDisplay:10.37,2013-06-05 02:17:00,
2013-06-04 21:19:00,67.1,38.5,29.15,NNE,22,2.3,0.0,35,0.00,CLR,,0.00,WeatherDisplay:10.37,2013-06-05 02:19:00,
2013-06-04 21:20:00,67.1,38.5,29.15,NNE,22,1.1,0.0,35,0.00,CLR,,0.00,WeatherDisplay:10.37,2013-06-05 02:20:00,
2013-06-04 21:22:00,66.9,39.1,29.15,ENE,68,3.5,3.5,36,0.00,CLR,,0.00,WeatherDisplay:10.37,2013-06-05 02:22:00,
2013-06-04 21:23:00,66.9,39.1,29.15,ENE,68,3.5,3.5,36,0.00,CLR,,0.00,WeatherDisplay:10.37,2013-06-05 02:23:00,
2013-06-04 21:24:00,66.9,39.1,29.15,East,90,1.6,1.6,36,0.00,CLR,,0.00,WeatherDisplay:10.37,2013-06-05 02:24:00,
2013-06-04 21:25:00,66.9,39.1,29.15,SSE,158,2.3,2.3,36,0.00,CLR,,0.00,WeatherDisplay:10.37,2013-06-05 02:25:00,
2013-06-04 21:27:00,66.7,38.9,29.15,SSE,158,1.1,0.0,36,0.00,CLR,,0.00,WeatherDisplay:10.37,2013-06-05 02:27:00,
2013-06-04 21:28:00,66.7,38.9,29.15,SSE,158,0.9,0.0,36,0.00,CLR,,0.00,WeatherDisplay:10.37,2013-06-05 02:28:00,
2013-06-04 21:29:00,66.7,38.9,29.15,SSE,158,2.3,2.3,36,0.00,CLR,,0.00,WeatherDisplay:10.37,2013-06-05 02:29:00,
2013-06-04 21:30:00,66.7,38.9,29.15,ENE,68,2.0,2.0,36,0.00,CLR,,0.00,WeatherDisplay:10.37,2013-06-05 02:30:00,
2013-06-04 21:34:00,66.6,39.5,29.15,ENE,68,1.1,0.0,37,0.00,CLR,,0.00,WeatherDisplay:10.37,2013-06-05 02:34:00,
2013-06-04 21:35:00,66.6,39.5,29.15,ENE,68,0.0,0.0,37,0.00,CLR,,0.00,WeatherDisplay:10.37,2013-06-05 02:35:00,
2013-06-04 21:39:00,66.4,39.3,29.15,ENE,68,1.1,0.0,37,0.00,CLR,,0.00,WeatherDisplay:10.37,2013-06-05 02:39:00,
2013-06-04 21:40:00,66.4,39.3,29.15,NE,45,1.1,0.0,37,0.00,CLR,,0.00,WeatherDisplay:10.37,2013-06-05 02:40:00,
2013-06-04 21:41:00,66.4,39.3,29.15,NE,45,0.0,0.0,37,0.00,CLR,,0.00,WeatherDisplay:10.37,2013-06-05 02:41:00,
2013-06-04 21:44:00,66.2,39.1,29.15,East,90,2.3,2.3,37,0.00,CLR,,0.00,WeatherDisplay:10.37,2013-06-05 02:44:00,
2013-06-04 21:45:00,66.2,39.1,29.15,East,90,1.1,0.0,37,0.00,CLR,,0.00,WeatherDisplay:10.37,2013-06-05 02:45:00,
2013-06-04 21:46:00,66.2,39.8,29.15,East,90,0.0,0.0,38,0.00,CLR,,0.00,WeatherDisplay:10.37,2013-06-05 02:46:00,
2013-06-04 21:49:00,66.0,39.7,29.15,East,90,0.0,0.0,38,0.00,CLR,,0.00,WeatherDisplay:10.37,2013-06-05 02:49:00,
2013-06-04 21:50:00,66.0,39.7,29.15,ENE,68,2.0,0.0,38,0.00,CLR,,0.00,WeatherDisplay:10.37,2013-06-05 02:50:00,
2013-06-04 21:51:00,66.0,39.7,29.15,ENE,68,1.6,1.6,38,0.00,CLR,,0.00,WeatherDisplay:10.37,2013-06-05 02:51:00,
2013-06-04 21:53:00,66.0,39.7,29.15,ENE,68,1.6,1.6,38,0.00,CLR,,0.00,WeatherDisplay:10.37,2013-06-05 02:53:00,
2013-06-04 21:55:00,66.0,40.3,29.15,NE,45,1.1,1.6,39,0.00,CLR,,0.00,WeatherDisplay:10.37,2013-06-05 02:55:00,
2013-06-04 21:56:00,65.8,40.2,29.15,NE,45,1.1,1.1,39,0.00,CLR,,0.00,WeatherDisplay:10.37,2013-06-05 02:56:00,
2013-06-04 21:57:00,65.8,40.2,29.15,NE,45,1.1,0.0,39,0.00,CLR,,0.00,WeatherDisplay:10.37,2013-06-05 02:57:00,
2013-06-04 21:58:00,65.8,40.2,29.15,NE,45,0.0,0.0,39,0.00,CLR,,0.00,WeatherDisplay:10.37,2013-06-05 02:58:00,
2013-06-04 22:00:00,65.8,40.2,29.15,NE,45,0.0,0.0,39,0.00,CLR,,0.00,WeatherDisplay:10.37,2013-06-05 03:00:00,
2013-06-04 22:01:00,65.8,40.8,29.15,NE,45,0.0,0.0,40,0.00,CLR,,0.00,WeatherDisplay:10.37,2013-06-05 03:01:00,
2013-06-04 22:03:00,65.8,40.2,29.15,NE,45,0.0,0.0,39,0.00,CLR,,0.00,WeatherDisplay:10.37,2013-06-05 03:03:00,
2013-06-04 22:04:00,65.8,40.8,29.18,NE,45,0.0,0.0,40,0.00,CLR,,0.00,WeatherDisplay:10.37,2013-06-05 03:04:00,
2013-06-04 22:05:00,65.8,40.2,29.18,NE,45,0.0,0.0,39,0.00,CLR,,0.00,WeatherDisplay:10.37,2013-06-05 03:05:00,
2013-06-04 22:07:00,65.7,40.0,29.18,NNW,338,0.0,0.0,39,0.00,CLR,,0.00,WeatherDisplay:10.37,2013-06-05 03:07:00,
2013-06-04 22:09:00,65.7,40.7,29.18,NNW,338,0.0,0.0,40,0.00,CLR,,0.00,WeatherDisplay:10.37,2013-06-05 03:09:00,
2013-06-04 22:10:00,65.7,40.7,29.18,NNW,338,0.0,0.0,40,0.00,CLR,,0.00,WeatherDisplay:10.37,2013-06-05 03:10:00,
2013-06-04 22:12:00,65.7,40.7,29.18,NNW,338,0.0,0.0,40,0.00,CLR,,0.00,WeatherDisplay:10.37,2013-06-05 03:12:00,
2013-06-04 22:13:00,65.7,40.7,29.18,NNW,338,0.0,0.0,40,0.00,CLR,,0.00,WeatherDisplay:10.37,2013-06-05 03:13:00,
2013-06-04 22:15:00,65.7,40.7,29.18,NNE,22,1.6,1.6,40,0.00,CLR,,0.00,WeatherDisplay:10.37,2013-06-05 03:15:00,
2013-06-04 22:17:00,65.7,41.3,29.18,NNE,22,1.1,1.1,41,0.00,CLR,,0.00,WeatherDisplay:10.37,2013-06-05 03:17:00,
2013-06-04 22:18:00,65.7,40.7,29.18,NNE,22,1.1,0.0,40,0.00,CLR,,0.00,WeatherDisplay:10.37,2013-06-05 03:18:00,
2013-06-04 22:19:00,65.7,40.7,29.18,NNE,22,0.0,0.0,40,0.00,CLR,,0.00,WeatherDisplay:10.37,2013-06-05 03:19:00,
2013-06-04 22:23:00,65.7,41.3,29.18,NNE,22,0.0,0.0,41,0.00,CLR,,0.00,WeatherDisplay:10.37,2013-06-05 03:23:00,
2013-06-04 22:24:00,65.7,40.7,29.18,NNE,22,0.0,0.0,40,0.00,CLR,,0.00,WeatherDisplay:10.37,2013-06-05 03:24:00,
2013-06-04 22:25:00,65.7,40.7,29.18,NNE,22,0.0,0.0,40,0.00,CLR,,0.00,WeatherDisplay:10.37,2013-06-05 03:25:00,
2013-06-04 22:27:00,65.5,41.1,29.18,NNE,22,0.0,0.0,41,0.00,CLR,,0.00,WeatherDisplay:10.37,2013-06-05 03:27:00,
2013-06-04 22:29:00,65.3,40.3,29.18,NNE,22,1.4,1.4,40,0.00,CLR,,0.00,WeatherDisplay:10.37,2013-06-05 03:29:00,
2013-06-04 22:30:00,65.3,40.3,29.18,NNE,22,1.4,1.4,40,0.00,CLR,,0.00,WeatherDisplay:10.37,2013-06-05 03:30:00,
2013-06-04 22:31:00,65.3,40.3,29.18,ENE,68,1.6,1.6,40,0.00,CLR,,0.00,WeatherDisplay:10.37,2013-06-05 03:31:00,
2013-06-04 22:32:00,65.1,40.2,29.18,ENE,68,1.4,1.4,40,0.00,CLR,,0.00,WeatherDisplay:10.37,2013-06-05 03:32:00,
2013-06-04 22:33:00,65.1,40.8,29.18,ENE,68,1.1,1.1,41,0.00,CLR,,0.00,WeatherDisplay:10.37,2013-06-05 03:33:00,
2013-06-04 22:35:00,65.1,40.8,29.18,ENE,68,0.0,0.0,41,0.00,CLR,,0.00,WeatherDisplay:10.37,2013-06-05 03:35:00,
2013-06-04 22:37:00,65.1,40.8,29.18,SSE,158,0.0,0.0,41,0.00,CLR,,0.00,WeatherDisplay:10.37,2013-06-05 03:37:00,
2013-06-04 22:38:00,64.9,41.3,29.18,SSE,158,2.3,2.3,42,0.00,CLR,,0.00,WeatherDisplay:10.37,2013-06-05 03:38:00,
2013-06-04 22:39:00,64.9,41.3,29.18,SSE,158,2.3,2.3,42,0.00,CLR,,0.00,WeatherDisplay:10.37,2013-06-05 03:39:00,
2013-06-04 22:43:00,64.8,41.7,29.18,SE,135,2.3,2.3,43,0.00,CLR,,0.00,WeatherDisplay:10.37,2013-06-05 03:43:00,
2013-06-04 22:44:00,64.8,41.7,29.18,SSE,158,2.6,2.6,43,0.00,CLR,,0.00,WeatherDisplay:10.37,2013-06-05 03:44:00,
2013-06-04 22:45:00,64.8,41.1,29.18,SE,145,2.0,0.0,42,0.00,CLR,,0.00,WeatherDisplay:10.37,2013-06-05 03:45:00,
2013-06-04 22:46:00,64.8,41.1,29.18,SSE,158,3.5,3.5,42,0.00,CLR,,0.00,WeatherDisplay:10.37,2013-06-05 03:46:00,
2013-06-04 22:49:00,64.6,41.6,29.18,SE,135,4.6,4.6,43,0.00,CLR,,0.00,WeatherDisplay:10.37,2013-06-05 03:49:00,
2013-06-04 22:50:00,64.6,41.6,29.18,ESE,112,4.6,4.6,43,0.00,CLR,,0.00,WeatherDisplay:10.37,2013-06-05 03:50:00,
2013-06-04 22:51:00,64.6,41.6,29.18,SSE,158,2.3,2.3,43,0.00,CLR,,0.00,WeatherDisplay:10.37,2013-06-05 03:51:00,
2013-06-04 22:53:00,64.6,41.6,29.18,ESE,112,2.3,2.3,43,0.00,CLR,,0.00,WeatherDisplay:10.37,2013-06-05 03:53:00,
2013-06-04 22:54:00,64.6,41.6,29.18,ESE,112,2.3,2.3,43,0.00,CLR,,0.00,WeatherDisplay:10.37,2013-06-05 03:54:00,
2013-06-04 22:55:00,64.6,41.6,29.18,ENE,68,2.3,2.3,43,0.00,CLR,,0.00,WeatherDisplay:10.37,2013-06-05 03:55:00,
2013-06-04 22:57:00,64.8,42.3,29.18,East,90,2.3,2.3,44,0.00,CLR,,0.00,WeatherDisplay:10.37,2013-06-05 03:57:00,
2013-06-04 22:58:00,64.8,42.3,29.18,NE,45,1.1,1.1,44,0.00,CLR,,0.00,WeatherDisplay:10.37,2013-06-05 03:58:00,
2013-06-04 23:00:00,64.8,42.3,29.18,NE,45,1.6,1.6,44,0.00,CLR,,0.00,WeatherDisplay:10.37,2013-06-05 04:00:00,
2013-06-04 23:01:00,64.6,42.2,29.18,NNE,22,2.3,2.3,44,0.00,CLR,,0.00,WeatherDisplay:10.37,2013-06-05 04:01:00,
2013-06-04 23:02:00,64.6,42.2,29.18,NNE,22,1.1,1.4,44,0.00,CLR,,0.00,WeatherDisplay:10.37,2013-06-05 04:02:00,
2013-06-04 23:05:00,64.6,42.2,29.18,NW,315,1.1,0.0,44,0.00,CLR,,0.00,WeatherDisplay:10.37,2013-06-05 04:05:00,
2013-06-04 23:06:00,64.4,42.0,29.18,NW,315,2.3,2.3,44,0.00,CLR,,0.00,WeatherDisplay:10.37,2013-06-05 04:06:00,
2013-06-04 23:07:00,64.4,42.0,29.18,NW,315,1.4,1.4,44,0.00,CLR,,0.00,WeatherDisplay:10.37,2013-06-05 04:07:00,
2013-06-04 23:08:00,64.4,42.0,29.18,NW,315,1.4,1.4,44,0.00,CLR,,0.00,WeatherDisplay:10.37,2013-06-05 04:08:00,
2013-06-04 23:10:00,64.4,42.0,29.18,NW,315,1.1,1.1,44,0.00,CLR,,0.00,WeatherDisplay:10.37,2013-06-05 04:10:00,
2013-06-04 23:11:00,64.4,42.0,29.18,NW,315,0.0,0.0,44,0.00,CLR,,0.00,WeatherDisplay:10.37,2013-06-05 04:11:00,
2013-06-04 23:12:00,64.4,42.0,29.18,NW,315,0.0,0.0,44,0.00,CLR,,0.00,WeatherDisplay:10.37,2013-06-05 04:12:00,
2013-06-04 23:13:00,64.2,43.0,29.18,NNE,22,0.0,0.0,46,0.00,CLR,,0.00,WeatherDisplay:10.37,2013-06-05 04:13:00,
2013-06-04 23:17:00,64.2,42.4,29.18,ENE,68,1.1,0.0,45,0.00,CLR,,0.00,WeatherDisplay:10.37,2013-06-05 04:17:00,
2013-06-04 23:18:00,64.2,42.4,29.18,ENE,68,1.6,1.6,45,0.00,CLR,,0.00,WeatherDisplay:10.37,2013-06-05 04:18:00,
2013-06-04 23:19:00,64.2,42.4,29.18,ENE,68,2.3,2.3,45,0.00,CLR,,0.00,WeatherDisplay:10.37,2013-06-05 04:19:00,
2013-06-04 23:20:00,64.0,42.3,29.18,ENE,68,2.3,2.3,45,0.00,CLR,,0.00,WeatherDisplay:10.37,2013-06-05 04:20:00,
2013-06-04 23:23:00,64.0,42.3,29.18,ENE,68,1.1,1.1,45,0.00,CLR,,0.00,WeatherDisplay:10.37,2013-06-05 04:23:00,
2013-06-04 23:24:00,64.0,42.3,29.18,ENE,68,0.0,0.0,45,0.00,CLR,,0.00,WeatherDisplay:10.37,2013-06-05 04:24:00,
2013-06-04 23:25:00,63.9,42.1,29.18,ENE,68,0.0,0.0,45,0.00,CLR,,0.00,WeatherDisplay:10.37,2013-06-05 04:25:00,
2013-06-04 23:26:00,63.9,42.1,29.18,ENE,68,0.0,0.0,45,0.00,CLR,,0.00,WeatherDisplay:10.37,2013-06-05 04:26:00,
2013-06-04 23:29:00,63.9,42.1,29.18,NE,45,0.0,0.0,45,0.00,CLR,,0.00,WeatherDisplay:10.37,2013-06-05 04:29:00,
2013-06-04 23:32:00,63.9,42.7,29.18,NE,45,0.0,0.0,46,0.00,CLR,,0.00,WeatherDisplay:10.37,2013-06-05 04:32:00,
2013-06-04 23:34:00,63.7,42.5,29.18,NE,45,0.0,0.0,46,0.00,CLR,,0.00,WeatherDisplay:10.37,2013-06-05 04:34:00,
2013-06-04 23:36:00,63.7,42.5,29.18,NE,45,0.0,0.0,46,0.00,CLR,,0.00,WeatherDisplay:10.37,2013-06-05 04:36:00,
2013-06-04 23:38:00,63.7,42.5,29.18,NE,45,0.0,0.0,46,0.00,CLR,,0.00,WeatherDisplay:10.37,2013-06-05 04:38:00,
2013-06-04 23:40:00,63.7,43.1,29.18,NE,45,0.0,0.0,47,0.00,CLR,,0.00,WeatherDisplay:10.37,2013-06-05 04:40:00,
2013-06-04 23:41:00,63.7,42.5,29.18,NE,45,1.1,1.1,46,0.00,CLR,,0.00,WeatherDisplay:10.37,2013-06-05 04:41:00,
2013-06-04 23:42:00,63.7,42.5,29.18,NE,45,1.1,0.0,46,0.00,CLR,,0.00,WeatherDisplay:10.37,2013-06-05 04:42:00,
2013-06-04 23:43:00,63.7,42.5,29.18,NE,45,1.1,0.0,46,0.00,CLR,,0.00,WeatherDisplay:10.37,2013-06-05 04:43:00,
2013-06-04 23:46:00,63.7,43.1,29.18,NE,45,0.0,0.0,47,0.00,CLR,,0.00,WeatherDisplay:10.37,2013-06-05 04:46:00,
2013-06-04 23:48:00,63.5,42.9,29.18,NE,45,0.0,0.0,47,0.00,CLR,,0.00,WeatherDisplay:10.37,2013-06-05 04:48:00,
2013-06-04 23:49:00,63.5,42.9,29.18,NE,45,1.1,1.1,47,0.00,CLR,,0.00,WeatherDisplay:10.37,2013-06-05 04:49:00,
2013-06-04 23:50:00,63.5,42.9,29.18,NE,45,1.1,1.1,47,0.00,CLR,,0.00,WeatherDisplay:10.37,2013-06-05 04:50:00,
2013-06-04 23:51:00,63.5,42.9,29.18,NE,45,1.1,1.1,47,0.00,CLR,,0.00,WeatherDisplay:10.37,2013-06-05 04:51:00,
2013-06-04 23:53:00,63.3,42.7,29.18,NE,45,1.1,0.0,47,0.00,CLR,,0.00,WeatherDisplay:10.37,2013-06-05 04:53:00,
2013-06-04 23:55:00,63.3,42.7,29.18,NE,45,0.0,0.0,47,0.00,CLR,,0.00,WeatherDisplay:10.37,2013-06-05 04:55:00,
2013-06-04 23:56:00,63.3,42.7,29.18,NE,45,0.0,0.0,47,0.00,CLR,,0.00,WeatherDisplay:10.37,2013-06-05 04:56:00,
2013-06-04 23:57:00,63.3,42.7,29.18,NE,45,1.1,1.1,47,0.00,CLR,,0.00,WeatherDisplay:10.37,2013-06-05 04:57:00,
2013-06-04 23:59:00,63.1,42.6,29.18,NE,45,1.1,1.1,47,0.00,CLR,,0.00,WeatherDisplay:10.37,2013-06-05 04:59:00,